Time,TemperatureF,DewpointF,PressureIn,WindDirection,WindDirectionDegrees,WindSpeedMPH,WindSpeedGustMPH,Humidity,HourlyPrecipIn,Conditions,Clouds,dailyrainin,SolarRadiationWatts/m^2,SoftwareType,DateUTC
2013-03-05 00:01:00,46.4,40.2,30.07,East,93,5.0,6.5,79,0.00,CLR,FEW,0.00,0.0,WeatherDisplay:10.37,2013-03-05 08:01:00,
2013-03-05 00:02:00,46.5,40.3,30.07,East,86,2.7,8.1,79,0.00,CLR,FEW,0.00,0.0,WeatherDisplay:10.37,2013-03-05 08:02:00,
2013-03-05 00:05:00,47.0,40.2,30.07,East,93,1.1,6.9,77,0.00,CLR,FEW,0.00,0.0,WeatherDisplay:10.37,2013-03-05 08:05:00,
2013-03-05 00:07:00,47.1,39.6,30.07,East,90,2.6,3.9,75,0.00,CLR,FEW,0.00,0.0,WeatherDisplay:10.37,2013-03-05 08:07:00,
2013-03-05 00:08:00,47.1,39.6,30.07,ENE,73,3.1,5.2,75,0.00,CLR,FEW,0.00,0.0,WeatherDisplay:10.37,2013-03-05 08:08:00,
2013-03-05 00:11:00,47.3,39.1,30.07,East,93,0.0,3.5,73,0.00,CLR,FEW,0.00,0.0,WeatherDisplay:10.37,2013-03-05 08:11:00,
2013-03-05 00:12:00,47.3,38.7,30.07,East,93,0.0,0.0,72,0.00,CLR,FEW,0.00,0.0,WeatherDisplay:10.37,2013-03-05 08:12:00,
2013-03-05 00:13:00,47.3,38.7,30.07,East,93,0.0,0.0,72,0.00,CLR,FEW,0.00,0.0,WeatherDisplay:10.37,2013-03-05 08:13:00,
2013-03-05 00:16:00,47.1,38.2,30.06,East,93,0.0,0.0,71,0.00,CLR,FEW,0.00,0.0,WeatherDisplay:10.37,2013-03-05 08:16:00,
2013-03-05 00:18:00,47.1,38.2,30.06,East,93,0.0,0.0,71,0.00,CLR,FEW,0.00,0.0,WeatherDisplay:10.37,2013-03-05 08:18:00,
2013-03-05 00:19:00,47.1,37.8,30.06,East,93,0.0,0.0,70,0.00,CLR,FEW,0.00,0.0,WeatherDisplay:10.37,2013-03-05 08:19:00,
2013-03-05 00:22:00,47.4,38.1,30.06,East,93,0.0,0.0,70,0.00,CLR,FEW,0.00,0.0,WeatherDisplay:10.37,2013-03-05 08:22:00,
2013-03-05 00:24:00,47.6,37.9,30.06,East,92,0.0,0.0,69,0.00,CLR,FEW,0.00,0.0,WeatherDisplay:10.37,2013-03-05 08:24:00,
2013-03-05 00:25:00,48.2,38.1,30.06,East,92,0.0,0.0,68,0.00,CLR,FEW,0.00,0.0,WeatherDisplay:10.37,2013-03-05 08:25:00,
2013-03-05 00:27:00,48.8,37.9,30.06,East,92,0.0,0.0,66,0.00,CLR,FEW,0.00,0.0,WeatherDisplay:10.37,2013-03-05 08:27:00,
2013-03-05 00:29:00,49.6,37.5,30.06,ENE,78,0.0,1.2,63,0.00,CLR,FEW,0.00,0.0,WeatherDisplay:10.37,2013-03-05 08:29:00,
2013-03-05 00:30:00,49.9,36.6,30.06,ENE,78,0.0,0.0,60,0.00,CLR,FEW,0.00,0.0,WeatherDisplay:10.37,2013-03-05 08:30:00,
2013-03-05 00:32:00,50.7,36.9,30.06,NE,54,0.0,3.5,59,0.00,CLR,FEW,0.00,0.0,WeatherDisplay:10.37,2013-03-05 08:32:00,
2013-03-05 00:34:00,50.8,36.5,30.06,NNE,23,0.0,1.2,58,0.00,CLR,FEW,0.00,0.0,WeatherDisplay:10.37,2013-03-05 08:34:00,
2013-03-05 00:36:00,50.8,36.5,30.06,NNE,23,0.0,0.0,58,0.00,CLR,FEW,0.00,0.0,WeatherDisplay:10.37,2013-03-05 08:36:00,
2013-03-05 00:38:00,50.7,36.5,30.06,NNE,24,0.0,0.0,58,0.00,CLR,FEW,0.00,0.0,WeatherDisplay:10.37,2013-03-05 08:38:00,
2013-03-05 00:41:00,50.4,35.7,30.06,NNE,24,0.0,0.0,57,0.00,CLR,FEW,0.00,0.0,WeatherDisplay:10.37,2013-03-05 08:41:00,
2013-03-05 00:43:00,50.4,35.3,30.06,NNE,24,0.0,0.0,56,0.00,CLR,FEW,0.00,0.0,WeatherDisplay:10.37,2013-03-05 08:43:00,
2013-03-05 00:44:00,50.2,35.1,30.06,NNE,24,0.0,0.0,56,0.00,CLR,FEW,0.00,0.0,WeatherDisplay:10.37,2013-03-05 08:44:00,
2013-03-05 00:46:00,50.1,34.5,30.06,NNE,24,0.0,0.0,55,0.00,CLR,FEW,0.00,0.0,WeatherDisplay:10.37,2013-03-05 08:46:00,
2013-03-05 00:47:00,50.1,34.5,30.06,NNE,24,0.0,0.0,55,0.00,CLR,FEW,0.00,0.0,WeatherDisplay:10.37,2013-03-05 08:47:00,
2013-03-05 00:48:00,50.1,34.5,30.06,NNE,24,0.0,0.0,55,0.00,CLR,FEW,0.00,0.0,WeatherDisplay:10.37,2013-03-05 08:48:00,
2013-03-05 00:49:00,50.1,34.5,30.06,NNE,24,0.0,0.0,55,0.00,CLR,FEW,0.00,0.0,WeatherDisplay:10.37,2013-03-05 08:49:00,
2013-03-05 00:52:00,49.6,34.1,30.06,NNE,24,0.0,0.0,55,0.00,CLR,FEW,0.00,0.0,WeatherDisplay:10.37,2013-03-05 08:52:00,
2013-03-05 00:53:00,49.4,34.3,30.06,NNE,24,0.0,0.0,56,0.00,CLR,FEW,0.00,0.0,WeatherDisplay:10.37,2013-03-05 08:53:00,
2013-03-05 00:55:00,49.2,34.2,30.06,NNE,24,0.0,0.0,56,0.00,CLR,FEW,0.00,0.0,WeatherDisplay:10.37,2013-03-05 08:55:00,
2013-03-05 00:57:00,49.1,34.9,30.06,NNE,24,0.0,0.0,58,0.00,CLR,FEW,0.00,0.0,WeatherDisplay:10.37,2013-03-05 08:57:00,
2013-03-05 00:58:00,49.1,34.9,30.06,NNE,24,0.0,0.0,58,0.00,CLR,FEW,0.00,0.0,WeatherDisplay:10.37,2013-03-05 08:58:00,
2013-03-05 00:59:00,48.9,35.2,30.06,NNE,24,0.0,0.0,59,0.00,CLR,FEW,0.00,0.0,WeatherDisplay:10.37,2013-03-05 08:59:00,
2013-03-05 01:00:00,48.9,35.2,30.06,NNE,24,0.0,0.0,59,0.00,CLR,FEW,0.00,0.0,WeatherDisplay:10.37,2013-03-05 09:00:00,
2013-03-05 01:02:00,48.8,35.5,30.06,NNE,24,0.0,0.0,60,0.00,CLR,FEW,0.00,0.0,WeatherDisplay:10.37,2013-03-05 09:02:00,
2013-03-05 01:03:00,48.8,35.5,30.06,NNE,24,0.0,0.0,60,0.00,CLR,FEW,0.00,0.0,WeatherDisplay:10.37,2013-03-05 09:03:00,
2013-03-05 01:05:00,48.6,35.7,30.06,NNE,24,0.0,0.0,61,0.00,CLR,FEW,0.00,0.0,WeatherDisplay:10.37,2013-03-05 09:05:00,
2013-03-05 01:07:00,47.9,35.1,30.06,East,89,0.0,0.0,61,0.00,CLR,FEW,0.00,0.0,WeatherDisplay:10.37,2013-03-05 09:07:00,
2013-03-05 01:08:00,47.6,35.2,30.06,East,89,0.0,0.0,62,0.00,CLR,FEW,0.00,0.0,WeatherDisplay:10.37,2013-03-05 09:08:00,
2013-03-05 01:10:00,47.3,35.7,30.06,East,89,0.0,0.0,64,0.00,CLR,FEW,0.00,0.0,WeatherDisplay:10.37,2013-03-05 09:10:00,
2013-03-05 01:12:00,47.0,35.8,30.06,East,89,0.0,0.0,65,0.00,CLR,FEW,0.00,0.0,WeatherDisplay:10.37,2013-03-05 09:12:00,
2013-03-05 01:13:00,47.0,35.8,30.06,East,89,0.0,0.0,65,0.00,CLR,FEW,0.00,0.0,WeatherDisplay:10.37,2013-03-05 09:13:00,
2013-03-05 01:15:00,46.7,35.9,30.06,East,89,0.0,0.0,66,0.00,CLR,FEW,0.00,0.0,WeatherDisplay:10.37,2013-03-05 09:15:00,
2013-03-05 01:18:00,46.7,36.7,30.06,East,89,0.0,0.0,68,0.00,CLR,FEW,0.00,0.0,WeatherDisplay:10.37,2013-03-05 09:18:00,
2013-03-05 01:21:00,46.7,37.4,30.06,East,89,0.0,0.0,70,0.00,CLR,FEW,0.00,0.0,WeatherDisplay:10.37,2013-03-05 09:21:00,
2013-03-05 01:23:00,46.5,37.6,30.06,East,89,0.0,0.0,71,0.00,CLR,FEW,0.00,0.0,WeatherDisplay:10.37,2013-03-05 09:23:00,
2013-03-05 01:24:00,46.5,38.0,30.06,East,89,0.0,0.0,72,0.00,CLR,FEW,0.00,0.0,WeatherDisplay:10.37,2013-03-05 09:24:00,
2013-03-05 01:26:00,46.4,37.9,30.06,East,89,0.0,0.0,72,0.00,CLR,FEW,0.00,0.0,WeatherDisplay:10.37,2013-03-05 09:26:00,
2013-03-05 01:28:00,46.4,38.2,30.06,East,89,0.0,0.0,73,0.00,CLR,FEW,0.00,0.0,WeatherDisplay:10.37,2013-03-05 09:28:00,
2013-03-05 01:30:00,46.4,38.2,30.06,East,89,0.0,0.0,73,0.00,CLR,FEW,0.00,0.0,WeatherDisplay:10.37,2013-03-05 09:30:00,
2013-03-05 01:33:00,46.5,38.0,30.06,East,89,0.0,0.0,72,0.00,CLR,FEW,0.00,0.0,WeatherDisplay:10.37,2013-03-05 09:33:00,
2013-03-05 01:34:00,46.5,38.0,30.06,East,89,0.0,0.0,72,0.00,CLR,FEW,0.00,0.0,WeatherDisplay:10.37,2013-03-05 09:34:00,
2013-03-05 01:35:00,46.5,38.3,30.06,East,89,0.0,0.0,73,0.00,CLR,FEW,0.00,0.0,WeatherDisplay:10.37,2013-03-05 09:35:00,
2013-03-05 01:39:00,46.5,38.0,30.06,East,89,0.0,0.0,72,0.00,CLR,FEW,0.00,0.0,WeatherDisplay:10.37,2013-03-05 09:39:00,
2013-03-05 01:40:00,46.5,38.0,30.06,East,89,0.0,0.0,72,0.00,CLR,FEW,0.00,0.0,WeatherDisplay:10.37,2013-03-05 09:40:00,
2013-03-05 01:41:00,46.5,38.0,30.06,East,89,0.0,0.0,72,0.00,CLR,FEW,0.00,0.0,WeatherDisplay:10.37,2013-03-05 09:41:00,
2013-03-05 01:45:00,46.5,38.0,30.06,East,89,0.0,0.0,72,0.00,CLR,FEW,0.00,0.0,WeatherDisplay:10.37,2013-03-05 09:45:00,
2013-03-05 01:48:00,46.5,37.6,30.06,East,89,0.0,0.0,71,0.00,CLR,FEW,0.00,0.0,WeatherDisplay:10.37,2013-03-05 09:48:00,
2013-03-05 01:50:00,46.4,37.5,30.06,East,89,0.0,0.0,71,0.00,CLR,FEW,0.00,0.0,WeatherDisplay:10.37,2013-03-05 09:50:00,
2013-03-05 01:53:00,46.2,37.0,30.06,East,89,0.0,0.0,70,0.00,CLR,FEW,0.00,0.0,WeatherDisplay:10.37,2013-03-05 09:53:00,
2013-03-05 01:55:00,46.2,37.0,30.06,East,89,0.0,0.0,70,0.00,CLR,FEW,0.00,0.0,WeatherDisplay:10.37,2013-03-05 09:55:00,
2013-03-05 01:56:00,46.2,37.0,30.06,East,89,0.0,0.0,70,0.00,CLR,FEW,0.00,0.0,WeatherDisplay:10.37,2013-03-05 09:56:00,
2013-03-05 01:57:00,46.2,37.0,30.06,East,89,0.0,0.0,70,0.00,CLR,FEW,0.00,0.0,WeatherDisplay:10.37,2013-03-05 09:57:00,
2013-03-05 01:58:00,46.1,36.9,30.06,East,89,0.0,0.0,70,0.00,CLR,FEW,0.00,0.0,WeatherDisplay:10.37,2013-03-05 09:58:00,
2013-03-05 02:00:00,46.1,37.2,30.06,East,89,0.0,0.0,71,0.00,CLR,FEW,0.00,0.0,WeatherDisplay:10.37,2013-03-05 10:00:00,
2013-03-05 02:01:00,46.1,37.2,30.06,East,89,0.0,0.0,71,0.00,CLR,FEW,0.00,0.0,WeatherDisplay:10.37,2013-03-05 10:01:00,
2013-03-05 02:02:00,46.1,37.2,30.06,East,89,0.0,0.0,71,0.00,CLR,FEW,0.00,0.0,WeatherDisplay:10.37,2013-03-05 10:02:00,
2013-03-05 02:04:00,46.2,37.7,30.06,East,89,0.0,0.0,72,0.00,CLR,FEW,0.00,0.0,WeatherDisplay:10.37,2013-03-05 10:04:00,
2013-03-05 02:06:00,46.2,37.7,30.06,East,89,0.0,0.0,72,0.00,CLR,FEW,0.00,0.0,WeatherDisplay:10.37,2013-03-05 10:06:00,
2013-03-05 02:07:00,46.2,37.7,30.06,East,89,0.0,0.0,72,0.00,CLR,FEW,0.00,0.0,WeatherDisplay:10.37,2013-03-05 10:07:00,
2013-03-05 02:09:00,46.2,38.0,30.06,East,89,0.0,0.0,73,0.00,CLR,FEW,0.00,0.0,WeatherDisplay:10.37,2013-03-05 10:09:00,
2013-03-05 02:11:00,46.2,38.0,30.06,East,89,0.0,0.0,73,0.00,CLR,FEW,0.00,0.0,WeatherDisplay:10.37,2013-03-05 10:11:00,
2013-03-05 02:12:00,46.2,38.0,30.06,East,89,0.0,0.0,73,0.00,CLR,FEW,0.00,0.0,WeatherDisplay:10.37,2013-03-05 10:12:00,
2013-03-05 02:13:00,46.2,38.0,30.06,East,89,0.0,0.0,73,0.00,CLR,FEW,0.00,0.0,WeatherDisplay:10.37,2013-03-05 10:13:00,
2013-03-05 02:15:00,46.2,38.0,30.06,East,89,0.0,0.0,73,0.00,CLR,FEW,0.00,0.0,WeatherDisplay:10.37,2013-03-05 10:15:00,
2013-03-05 02:17:00,46.2,38.0,30.06,East,89,0.0,0.0,73,0.00,CLR,FEW,0.00,0.0,WeatherDisplay:10.37,2013-03-05 10:17:00,
2013-03-05 02:18:00,46.1,37.9,30.06,East,89,0.0,0.0,73,0.00,CLR,FEW,0.00,0.0,WeatherDisplay:10.37,2013-03-05 10:18:00,
2013-03-05 02:22:00,45.5,37.0,30.06,East,89,0.0,0.0,72,0.00,CLR,FEW,0.00,0.0,WeatherDisplay:10.37,2013-03-05 10:22:00,
2013-03-05 02:23:00,45.5,37.3,30.06,East,89,0.0,0.0,73,0.00,CLR,FEW,0.00,0.0,WeatherDisplay:10.37,2013-03-05 10:23:00,
2013-03-05 02:24:00,45.4,37.2,30.06,East,89,0.0,0.0,73,0.00,CLR,FEW,0.00,0.0,WeatherDisplay:10.37,2013-03-05 10:24:00,
2013-03-05 02:27:00,45.2,37.1,30.06,East,89,0.0,0.0,73,0.00,CLR,FEW,0.00,0.0,WeatherDisplay:10.37,2013-03-05 10:27:00,
2013-03-05 02:28:00,45.2,37.1,30.06,East,89,0.0,0.0,73,0.00,CLR,FEW,0.00,0.0,WeatherDisplay:10.37,2013-03-05 10:28:00,
2013-03-05 02:29:00,44.9,36.4,30.06,East,89,0.0,0.0,72,0.00,CLR,FEW,0.00,0.0,WeatherDisplay:10.37,2013-03-05 10:29:00,
2013-03-05 02:34:00,44.6,36.8,30.06,East,89,0.0,0.0,74,0.00,CLR,FEW,0.00,0.0,WeatherDisplay:10.37,2013-03-05 10:34:00,
2013-03-05 02:36:00,44.6,36.8,30.06,East,89,0.0,0.0,74,0.00,CLR,FEW,0.00,0.0,WeatherDisplay:10.37,2013-03-05 10:36:00,
2013-03-05 02:39:00,44.6,36.8,30.06,East,89,0.0,0.0,74,0.00,CLR,FEW,0.00,0.0,WeatherDisplay:10.37,2013-03-05 10:39:00,
2013-03-05 02:41:00,44.6,36.8,30.06,East,89,0.0,0.0,74,0.00,CLR,FEW,0.00,0.0,WeatherDisplay:10.37,2013-03-05 10:41:00,
2013-03-05 02:44:00,44.6,36.8,30.06,East,89,0.0,0.0,74,0.00,CLR,FEW,0.00,0.0,WeatherDisplay:10.37,2013-03-05 10:44:00,
2013-03-05 02:45:00,44.5,36.7,30.06,East,89,0.0,0.0,74,0.00,CLR,FEW,0.00,0.0,WeatherDisplay:10.37,2013-03-05 10:45:00,
2013-03-05 02:46:00,44.5,36.7,30.06,East,89,0.0,0.0,74,0.00,CLR,FEW,0.00,0.0,WeatherDisplay:10.37,2013-03-05 10:46:00,
2013-03-05 02:48:00,44.3,36.5,30.06,East,89,0.0,0.0,74,0.00,CLR,FEW,0.00,0.0,WeatherDisplay:10.37,2013-03-05 10:48:00,
2013-03-05 02:50:00,44.2,36.4,30.06,East,89,0.0,0.0,74,0.00,CLR,FEW,0.00,0.0,WeatherDisplay:10.37,2013-03-05 10:50:00,
2013-03-05 02:51:00,44.2,36.4,30.06,East,89,0.0,0.0,74,0.00,CLR,FEW,0.00,0.0,WeatherDisplay:10.37,2013-03-05 10:51:00,
2013-03-05 02:54:00,44.1,36.7,30.06,East,89,0.0,0.0,75,0.00,CLR,FEW,0.00,0.0,WeatherDisplay:10.37,2013-03-05 10:54:00,
2013-03-05 02:55:00,44.1,36.7,30.06,East,89,0.0,0.0,75,0.00,CLR,FEW,0.00,0.0,WeatherDisplay:10.37,2013-03-05 10:55:00,
2013-03-05 02:56:00,44.1,37.0,30.06,East,89,0.0,0.0,76,0.00,CLR,FEW,0.00,0.0,WeatherDisplay:10.37,2013-03-05 10:56:00,
2013-03-05 02:57:00,44.2,37.1,30.06,East,89,0.0,0.0,76,0.00,CLR,FEW,0.00,0.0,WeatherDisplay:10.37,2013-03-05 10:57:00,
2013-03-05 03:00:00,44.2,37.1,30.06,East,89,0.0,0.0,76,0.00,CLR,FEW,0.00,0.0,WeatherDisplay:10.37,2013-03-05 11:00:00,
2013-03-05 03:02:00,44.2,37.1,30.06,East,88,0.0,0.0,76,0.00,CLR,FEW,0.00,0.0,WeatherDisplay:10.37,2013-03-05 11:02:00,
2013-03-05 03:05:00,44.1,37.3,30.06,East,88,0.0,0.0,77,0.00,CLR,FEW,0.00,0.0,WeatherDisplay:10.37,2013-03-05 11:05:00,
2013-03-05 03:06:00,44.1,37.3,30.06,East,88,0.0,0.0,77,0.00,CLR,FEW,0.00,0.0,WeatherDisplay:10.37,2013-03-05 11:06:00,
2013-03-05 03:08:00,44.1,37.3,30.06,East,88,0.0,0.0,77,0.00,CLR,FEW,0.00,0.0,WeatherDisplay:10.37,2013-03-05 11:08:00,
2013-03-05 03:10:00,44.2,37.8,30.06,East,88,0.0,0.0,78,0.00,CLR,FEW,0.00,0.0,WeatherDisplay:10.37,2013-03-05 11:10:00,
2013-03-05 03:12:00,44.2,37.8,30.06,East,88,0.0,0.0,78,0.00,CLR,FEW,0.00,0.0,WeatherDisplay:10.37,2013-03-05 11:12:00,
2013-03-05 03:13:00,44.2,37.4,30.06,East,88,0.0,0.0,77,0.00,CLR,FEW,0.00,0.0,WeatherDisplay:10.37,2013-03-05 11:13:00,
2013-03-05 03:15:00,44.1,37.3,30.06,East,88,0.0,0.0,77,0.00,CLR,FEW,0.00,0.0,WeatherDisplay:10.37,2013-03-05 11:15:00,
2013-03-05 03:16:00,43.9,37.2,30.05,East,88,0.0,0.0,77,0.00,CLR,FEW,0.00,0.0,WeatherDisplay:10.37,2013-03-05 11:16:00,
2013-03-05 03:17:00,43.9,37.2,30.05,East,88,0.0,0.0,77,0.00,CLR,FEW,0.00,0.0,WeatherDisplay:10.37,2013-03-05 11:17:00,
2013-03-05 03:18:00,43.9,37.5,30.05,East,88,0.0,0.0,78,0.00,CLR,FEW,0.00,0.0,WeatherDisplay:10.37,2013-03-05 11:18:00,
2013-03-05 03:20:00,43.5,36.8,30.05,East,88,0.0,0.0,77,0.00,CLR,FEW,0.00,0.0,WeatherDisplay:10.37,2013-03-05 11:20:00,
2013-03-05 03:21:00,43.3,36.6,30.05,East,88,0.0,0.0,77,0.00,CLR,FEW,0.00,0.0,WeatherDisplay:10.37,2013-03-05 11:21:00,
2013-03-05 03:22:00,43.1,36.4,30.05,East,88,0.0,0.0,77,0.00,CLR,FEW,0.00,0.0,WeatherDisplay:10.37,2013-03-05 11:22:00,
2013-03-05 03:23:00,43.1,36.7,30.05,East,88,0.0,0.0,78,0.00,CLR,FEW,0.00,0.0,WeatherDisplay:10.37,2013-03-05 11:23:00,
2013-03-05 03:26:00,42.9,36.5,30.05,East,88,0.0,0.0,78,0.00,CLR,FEW,0.00,0.0,WeatherDisplay:10.37,2013-03-05 11:26:00,
2013-03-05 03:27:00,43.1,37.0,30.05,East,88,0.0,0.0,79,0.00,CLR,FEW,0.00,0.0,WeatherDisplay:10.37,2013-03-05 11:27:00,
2013-03-05 03:28:00,43.2,37.1,30.05,East,88,0.0,0.0,79,0.00,CLR,FEW,0.00,0.0,WeatherDisplay:10.37,2013-03-05 11:28:00,
2013-03-05 03:32:00,43.9,37.8,30.06,East,88,0.0,0.0,79,0.00,CLR,FEW,0.00,0.0,WeatherDisplay:10.37,2013-03-05 11:32:00,
2013-03-05 03:33:00,44.1,38.0,30.06,East,88,0.0,0.0,79,0.00,CLR,FEW,0.00,0.0,WeatherDisplay:10.37,2013-03-05 11:33:00,
2013-03-05 03:38:00,44.2,37.8,30.06,East,88,0.0,0.0,78,0.00,CLR,FEW,0.00,0.0,WeatherDisplay:10.37,2013-03-05 11:38:00,
2013-03-05 03:39:00,44.1,37.7,30.06,East,88,0.0,0.0,78,0.00,CLR,FEW,0.00,0.0,WeatherDisplay:10.37,2013-03-05 11:39:00,
2013-03-05 03:40:00,44.1,37.7,30.06,East,88,0.0,0.0,78,0.00,CLR,FEW,0.00,0.0,WeatherDisplay:10.37,2013-03-05 11:40:00,
2013-03-05 03:43:00,43.9,37.5,30.06,East,88,0.0,0.0,78,0.00,CLR,FEW,0.00,0.0,WeatherDisplay:10.37,2013-03-05 11:43:00,
2013-03-05 03:44:00,43.9,37.5,30.06,East,88,0.0,0.0,78,0.00,CLR,FEW,0.00,0.0,WeatherDisplay:10.37,2013-03-05 11:44:00,
2013-03-05 03:46:00,44.5,38.7,30.06,East,88,0.0,0.0,80,0.00,CLR,FEW,0.00,0.0,WeatherDisplay:10.37,2013-03-05 11:46:00,
2013-03-05 03:49:00,44.9,38.8,30.06,East,88,0.0,0.0,79,0.00,CLR,FEW,0.00,0.0,WeatherDisplay:10.37,2013-03-05 11:49:00,
2013-03-05 03:51:00,45.2,39.1,30.06,East,88,0.0,0.0,79,0.00,CLR,FEW,0.00,0.0,WeatherDisplay:10.37,2013-03-05 11:51:00,
2013-03-05 03:54:00,45.2,38.7,30.06,East,88,0.0,0.0,78,0.00,CLR,FEW,0.00,0.0,WeatherDisplay:10.37,2013-03-05 11:54:00,
2013-03-05 03:55:00,45.2,38.7,30.06,East,88,0.0,0.0,78,0.00,CLR,FEW,0.00,0.0,WeatherDisplay:10.37,2013-03-05 11:55:00,
2013-03-05 03:56:00,45.2,38.7,30.06,East,88,0.0,0.0,78,0.00,CLR,FEW,0.00,0.0,WeatherDisplay:10.37,2013-03-05 11:56:00,
2013-03-05 03:59:00,45.2,38.7,30.06,East,88,0.0,0.0,78,0.00,CLR,FEW,0.00,0.0,WeatherDisplay:10.37,2013-03-05 11:59:00,
2013-03-05 04:01:00,45.1,38.6,30.05,NNE,28,0.0,0.0,78,0.00,CLR,FEW,0.00,0.0,WeatherDisplay:10.37,2013-03-05 12:01:00,
2013-03-05 04:02:00,44.9,38.5,30.05,NNE,28,0.0,0.0,78,0.00,CLR,FEW,0.00,0.0,WeatherDisplay:10.37,2013-03-05 12:02:00,
2013-03-05 04:03:00,44.8,38.0,30.05,NNE,28,0.0,0.0,77,0.00,CLR,FEW,0.00,0.0,WeatherDisplay:10.37,2013-03-05 12:03:00,
2013-03-05 04:04:00,44.6,37.8,30.05,NNE,28,0.0,0.0,77,0.00,CLR,FEW,0.00,0.0,WeatherDisplay:10.37,2013-03-05 12:04:00,
2013-03-05 04:06:00,44.5,37.7,30.05,NNE,29,0.0,0.0,77,0.00,CLR,FEW,0.00,0.0,WeatherDisplay:10.37,2013-03-05 12:06:00,
2013-03-05 04:07:00,44.3,37.9,30.05,NNE,29,0.0,0.0,78,0.00,CLR,FEW,0.00,0.0,WeatherDisplay:10.37,2013-03-05 12:07:00,
2013-03-05 04:08:00,44.3,37.9,30.05,NNE,29,0.0,0.0,78,0.00,CLR,FEW,0.00,0.0,WeatherDisplay:10.37,2013-03-05 12:08:00,
2013-03-05 04:09:00,44.3,37.9,30.05,NNE,29,0.0,0.0,78,0.00,CLR,FEW,0.00,0.0,WeatherDisplay:10.37,2013-03-05 12:09:00,
2013-03-05 04:11:00,44.2,37.4,30.05,NNE,29,0.0,0.0,77,0.00,CLR,FEW,0.00,0.0,WeatherDisplay:10.37,2013-03-05 12:11:00,
2013-03-05 04:12:00,44.2,37.4,30.05,NNE,30,0.0,0.0,77,0.00,CLR,FEW,0.00,0.0,WeatherDisplay:10.37,2013-03-05 12:12:00,
2013-03-05 04:13:00,44.1,37.3,30.05,NNE,30,0.0,0.0,77,0.00,CLR,FEW,0.00,0.0,WeatherDisplay:10.37,2013-03-05 12:13:00,
2013-03-05 04:14:00,44.1,37.3,30.05,NNE,30,0.0,0.0,77,0.00,CLR,FEW,0.00,0.0,WeatherDisplay:10.37,2013-03-05 12:14:00,
2013-03-05 04:18:00,45.1,39.0,30.05,NNE,30,0.0,0.0,79,0.00,CLR,FEW,0.00,0.0,WeatherDisplay:10.37,2013-03-05 12:18:00,
2013-03-05 04:19:00,45.2,39.1,30.05,NNE,30,0.0,0.0,79,0.00,CLR,FEW,0.00,0.0,WeatherDisplay:10.37,2013-03-05 12:19:00,
2013-03-05 04:20:00,45.5,39.0,30.05,NNE,30,0.0,0.0,78,0.00,CLR,FEW,0.00,0.0,WeatherDisplay:10.37,2013-03-05 12:20:00,
2013-03-05 04:24:00,45.8,39.0,30.05,NNE,30,0.0,0.0,77,0.00,CLR,FEW,0.00,0.0,WeatherDisplay:10.37,2013-03-05 12:24:00,
2013-03-05 04:25:00,45.9,39.0,30.05,NNE,30,0.0,0.0,77,0.00,CLR,FEW,0.00,0.0,WeatherDisplay:10.37,2013-03-05 12:25:00,
2013-03-05 04:29:00,46.0,38.5,30.05,NNE,30,0.0,0.0,75,0.00,CLR,FEW,0.00,0.0,WeatherDisplay:10.37,2013-03-05 12:29:00,
2013-03-05 04:30:00,46.0,38.5,30.05,NNE,30,0.0,0.0,75,0.00,CLR,FEW,0.00,0.0,WeatherDisplay:10.37,2013-03-05 12:30:00,
2013-03-05 04:31:00,46.1,38.6,30.06,NNE,30,0.0,0.0,75,0.00,CLR,FEW,0.00,0.0,WeatherDisplay:10.37,2013-03-05 12:31:00,
2013-03-05 04:35:00,46.4,38.6,30.06,NNE,30,0.0,0.0,74,0.00,CLR,FEW,0.00,0.0,WeatherDisplay:10.37,2013-03-05 12:35:00,
2013-03-05 04:36:00,46.5,38.7,30.06,NNE,30,0.0,0.0,74,0.00,CLR,FEW,0.00,0.0,WeatherDisplay:10.37,2013-03-05 12:36:00,
2013-03-05 04:38:00,46.7,38.1,30.06,NNE,30,0.0,0.0,72,0.00,CLR,FEW,0.00,0.0,WeatherDisplay:10.37,2013-03-05 12:38:00,
2013-03-05 04:41:00,46.7,37.8,30.06,NNE,30,0.0,0.0,71,0.00,CLR,FEW,0.00,0.0,WeatherDisplay:10.37,2013-03-05 12:41:00,
2013-03-05 04:44:00,46.8,37.9,30.06,NNE,30,0.0,0.0,71,0.00,CLR,FEW,0.00,0.0,WeatherDisplay:10.37,2013-03-05 12:44:00,
2013-03-05 04:46:00,46.8,37.9,30.06,NNE,30,0.0,0.0,71,0.00,CLR,FEW,0.00,0.0,WeatherDisplay:10.37,2013-03-05 12:46:00,
2013-03-05 04:47:00,47.0,37.7,30.06,NNE,30,0.0,0.0,70,0.00,CLR,FEW,0.00,0.0,WeatherDisplay:10.37,2013-03-05 12:47:00,
2013-03-05 04:49:00,47.0,37.7,30.06,NNE,30,0.0,0.0,70,0.00,CLR,FEW,0.00,0.0,WeatherDisplay:10.37,2013-03-05 12:49:00,
2013-03-05 04:51:00,47.1,37.8,30.06,NNE,30,0.0,0.0,70,0.00,CLR,FEW,0.00,0.0,WeatherDisplay:10.37,2013-03-05 12:51:00,
2013-03-05 04:52:00,47.4,38.1,30.06,NNE,30,0.0,0.0,70,0.00,CLR,FEW,0.00,0.0,WeatherDisplay:10.37,2013-03-05 12:52:00,
2013-03-05 04:55:00,47.6,37.9,30.06,NNE,30,0.0,0.0,69,0.00,CLR,FEW,0.00,0.0,WeatherDisplay:10.37,2013-03-05 12:55:00,
2013-03-05 04:56:00,47.7,38.0,30.06,NNE,30,0.0,0.0,69,0.00,CLR,FEW,0.00,0.0,WeatherDisplay:10.37,2013-03-05 12:56:00,
2013-03-05 04:58:00,47.7,37.7,30.06,NNE,30,0.0,0.0,68,0.00,CLR,FEW,0.00,0.0,WeatherDisplay:10.37,2013-03-05 12:58:00,
2013-03-05 05:00:00,47.7,37.7,30.06,NNE,30,0.0,0.0,68,0.00,CLR,FEW,0.00,0.0,WeatherDisplay:10.37,2013-03-05 13:00:00,
2013-03-05 05:01:00,47.9,37.5,30.06,NNE,30,0.0,0.0,67,0.00,CLR,FEW,0.00,0.0,WeatherDisplay:10.37,2013-03-05 13:01:00,
2013-03-05 05:02:00,47.7,37.3,30.06,NNE,30,0.0,0.0,67,0.00,CLR,FEW,0.00,0.0,WeatherDisplay:10.37,2013-03-05 13:02:00,
2013-03-05 05:04:00,47.3,37.3,30.06,NNE,30,0.0,0.0,68,0.00,CLR,FEW,0.00,0.0,WeatherDisplay:10.37,2013-03-05 13:04:00,
2013-03-05 05:05:00,47.0,37.0,30.06,NNE,30,0.0,0.0,68,0.00,CLR,FEW,0.00,0.0,WeatherDisplay:10.37,2013-03-05 13:05:00,
2013-03-05 05:06:00,46.8,36.8,30.06,NNE,30,0.0,0.0,68,0.00,CLR,FEW,0.00,0.0,WeatherDisplay:10.37,2013-03-05 13:06:00,
2013-03-05 05:07:00,46.7,37.1,30.06,NNE,30,0.0,0.0,69,0.00,CLR,FEW,0.00,0.0,WeatherDisplay:10.37,2013-03-05 13:07:00,
2013-03-05 05:09:00,46.4,36.8,30.06,NNE,30,0.0,0.0,69,0.00,CLR,FEW,0.00,0.0,WeatherDisplay:10.37,2013-03-05 13:09:00,
2013-03-05 05:11:00,46.2,37.0,30.06,NNE,30,0.0,0.0,70,0.00,CLR,FEW,0.00,0.0,WeatherDisplay:10.37,2013-03-05 13:11:00,
2013-03-05 05:12:00,46.0,36.8,30.06,NNE,30,0.0,0.0,70,0.00,CLR,FEW,0.00,0.0,WeatherDisplay:10.37,2013-03-05 13:12:00,
2013-03-05 05:14:00,45.7,36.5,30.06,NNE,30,0.0,0.0,70,0.00,CLR,FEW,0.00,0.0,WeatherDisplay:10.37,2013-03-05 13:14:00,
2013-03-05 05:15:00,45.5,36.6,30.05,NNE,30,0.0,0.0,71,0.00,CLR,FEW,0.00,0.0,WeatherDisplay:10.37,2013-03-05 13:15:00,
2013-03-05 05:17:00,45.5,36.6,30.05,NNE,30,0.0,0.0,71,0.00,CLR,FEW,0.00,0.0,WeatherDisplay:10.37,2013-03-05 13:17:00,
2013-03-05 05:18:00,45.4,36.5,30.05,NNE,30,0.0,0.0,71,0.00,CLR,FEW,0.00,0.0,WeatherDisplay:10.37,2013-03-05 13:18:00,
2013-03-05 05:19:00,45.4,36.5,30.05,NNE,30,0.0,0.0,71,0.00,CLR,FEW,0.00,0.0,WeatherDisplay:10.37,2013-03-05 13:19:00,
2013-03-05 05:20:00,45.4,36.9,30.05,NNE,30,0.0,0.0,72,0.00,CLR,FEW,0.00,0.0,WeatherDisplay:10.37,2013-03-05 13:20:00,
2013-03-05 05:22:00,45.5,37.0,30.05,NNE,30,0.0,0.0,72,0.00,CLR,FEW,0.00,0.0,WeatherDisplay:10.37,2013-03-05 13:22:00,
2013-03-05 05:23:00,45.5,37.0,30.05,NNE,30,0.0,0.0,72,0.00,CLR,FEW,0.00,0.0,WeatherDisplay:10.37,2013-03-05 13:23:00,
2013-03-05 05:24:00,45.7,37.2,30.05,NNE,30,0.0,0.0,72,0.00,CLR,FEW,0.00,0.0,WeatherDisplay:10.37,2013-03-05 13:24:00,
2013-03-05 05:25:00,45.8,36.9,30.05,NNE,30,0.0,0.0,71,0.00,CLR,FEW,0.00,0.0,WeatherDisplay:10.37,2013-03-05 13:25:00,
2013-03-05 05:27:00,46.0,37.1,30.05,NNE,30,0.0,0.0,71,0.00,CLR,FEW,0.00,0.0,WeatherDisplay:10.37,2013-03-05 13:27:00,
2013-03-05 05:29:00,46.0,36.8,30.05,NNE,30,0.0,0.0,70,0.00,CLR,FEW,0.00,0.0,WeatherDisplay:10.37,2013-03-05 13:29:00,
2013-03-05 05:30:00,46.0,36.8,30.05,NNE,30,0.0,0.0,70,0.00,CLR,FEW,0.00,0.0,WeatherDisplay:10.37,2013-03-05 13:30:00,
2013-03-05 05:32:00,46.0,36.8,30.05,NNE,30,0.0,0.0,70,0.00,CLR,FEW,0.00,0.0,WeatherDisplay:10.37,2013-03-05 13:32:00,
2013-03-05 05:34:00,45.8,36.6,30.05,NNE,30,0.0,0.0,70,0.00,CLR,FEW,0.00,0.0,WeatherDisplay:10.37,2013-03-05 13:34:00,
2013-03-05 05:36:00,46.0,36.8,30.05,NNE,30,0.0,0.0,70,0.00,CLR,FEW,0.00,0.0,WeatherDisplay:10.37,2013-03-05 13:36:00,
2013-03-05 05:37:00,46.1,36.5,30.05,NNE,30,0.0,0.0,69,0.00,CLR,FEW,0.00,0.0,WeatherDisplay:10.37,2013-03-05 13:37:00,
2013-03-05 05:40:00,46.2,36.6,30.05,NNE,30,0.0,0.0,69,0.00,CLR,FEW,0.00,0.0,WeatherDisplay:10.37,2013-03-05 13:40:00,
2013-03-05 05:41:00,46.2,36.2,30.05,NNE,30,0.0,0.0,68,0.00,CLR,FEW,0.00,0.0,WeatherDisplay:10.37,2013-03-05 13:41:00,
2013-03-05 05:42:00,46.2,36.2,30.05,NNE,30,0.0,0.0,68,0.00,CLR,FEW,0.00,0.0,WeatherDisplay:10.37,2013-03-05 13:42:00,
2013-03-05 05:44:00,46.2,36.6,30.05,NNE,30,0.0,0.0,69,0.00,CLR,FEW,0.00,0.0,WeatherDisplay:10.37,2013-03-05 13:44:00,
2013-03-05 05:45:00,46.4,36.4,30.05,NNE,30,0.0,0.0,68,0.00,CLR,FEW,0.00,0.0,WeatherDisplay:10.37,2013-03-05 13:45:00,
2013-03-05 05:47:00,46.5,36.5,30.04,NNE,30,0.0,0.0,68,0.00,CLR,FEW,0.00,0.0,WeatherDisplay:10.37,2013-03-05 13:47:00,
2013-03-05 05:49:00,46.8,36.4,30.04,NNE,30,0.0,0.0,67,0.00,CLR,FEW,0.00,0.0,WeatherDisplay:10.37,2013-03-05 13:49:00,
2013-03-05 05:51:00,47.1,36.7,30.04,NNE,30,0.0,0.0,67,0.00,CLR,FEW,0.00,0.0,WeatherDisplay:10.37,2013-03-05 13:51:00,
2013-03-05 05:52:00,47.3,36.9,30.04,NNE,30,0.0,0.0,67,0.00,CLR,FEW,0.00,0.0,WeatherDisplay:10.37,2013-03-05 13:52:00,
2013-03-05 05:53:00,47.3,36.9,30.04,NNE,30,0.0,0.0,67,0.00,CLR,FEW,0.00,0.0,WeatherDisplay:10.37,2013-03-05 13:53:00,
2013-03-05 05:56:00,47.3,36.5,30.04,NNE,32,0.0,0.0,66,0.00,CLR,FEW,0.00,0.0,WeatherDisplay:10.37,2013-03-05 13:56:00,
2013-03-05 05:57:00,47.3,36.5,30.04,NNE,32,0.0,0.0,66,0.00,CLR,FEW,0.00,0.0,WeatherDisplay:10.37,2013-03-05 13:57:00,
2013-03-05 05:58:00,47.3,36.5,30.04,NNE,32,0.0,0.0,66,0.00,CLR,FEW,0.00,0.0,WeatherDisplay:10.37,2013-03-05 13:58:00,
2013-03-05 06:03:00,47.4,36.6,30.05,NNE,32,0.0,0.0,66,0.00,OVC,FEW,0.00,0.0,WeatherDisplay:10.37,2013-03-05 14:03:00,
2013-03-05 06:04:00,47.3,36.5,30.05,NNE,32,0.0,0.0,66,0.00,OVC,FEW,0.00,0.0,WeatherDisplay:10.37,2013-03-05 14:04:00,
2013-03-05 06:08:00,46.8,36.4,30.05,NNE,32,0.0,0.0,67,0.00,OVC,FEW,0.00,0.0,WeatherDisplay:10.37,2013-03-05 14:08:00,
2013-03-05 06:09:00,46.8,36.4,30.05,NNE,32,0.0,0.0,67,0.00,OVC,FEW,0.00,0.0,WeatherDisplay:10.37,2013-03-05 14:09:00,
2013-03-05 06:13:00,47.3,36.1,30.05,NNE,32,0.0,0.0,65,0.00,OVC,FEW,0.00,0.0,WeatherDisplay:10.37,2013-03-05 14:13:00,
2013-03-05 06:14:00,47.3,36.1,30.05,NNE,32,0.0,0.0,65,0.00,OVC,FEW,0.00,0.0,WeatherDisplay:10.37,2013-03-05 14:14:00,
2013-03-05 06:15:00,47.4,36.2,30.05,NNE,32,0.0,0.0,65,0.00,OVC,FEW,0.00,0.0,WeatherDisplay:10.37,2013-03-05 14:15:00,
2013-03-05 06:17:00,47.9,36.3,30.06,NNE,32,0.0,0.0,64,0.00,OVC,FEW,0.00,0.0,WeatherDisplay:10.37,2013-03-05 14:17:00,
2013-03-05 06:19:00,48.0,36.4,30.06,NNE,32,0.0,0.0,64,0.00,OVC,FEW,0.00,5.3,WeatherDisplay:10.37,2013-03-05 14:19:00,
2013-03-05 06:20:00,48.2,36.2,30.06,NNE,32,0.0,0.0,63,0.00,CLR,FEW,0.00,5.3,WeatherDisplay:10.37,2013-03-05 14:20:00,
2013-03-05 06:22:00,48.2,35.8,30.06,NNE,32,0.0,0.0,62,0.00,SCT,FEW,0.00,5.3,WeatherDisplay:10.37,2013-03-05 14:22:00,
2013-03-05 06:24:00,48.0,35.6,30.06,NNE,32,0.0,0.0,62,0.00,BKN,FEW,0.00,5.3,WeatherDisplay:10.37,2013-03-05 14:24:00,
2013-03-05 06:25:00,48.0,35.6,30.06,NNE,32,0.0,0.0,62,0.00,BKN,FEW,0.00,5.3,WeatherDisplay:10.37,2013-03-05 14:25:00,
2013-03-05 06:26:00,48.0,35.6,30.06,NNE,32,0.0,0.0,62,0.00,BKN,FEW,0.00,7.3,WeatherDisplay:10.37,2013-03-05 14:26:00,
2013-03-05 06:28:00,47.9,35.5,30.06,NNE,32,0.0,0.0,62,0.00,BKN,FEW,0.00,7.3,WeatherDisplay:10.37,2013-03-05 14:28:00,
2013-03-05 06:31:00,48.0,34.8,30.06,NNE,32,0.0,0.0,60,0.00,BKN,FEW,0.00,9.4,WeatherDisplay:10.37,2013-03-05 14:31:00,
2013-03-05 06:32:00,48.0,34.8,30.06,NNE,32,0.0,0.0,60,0.00,BKN,FEW,0.00,9.4,WeatherDisplay:10.37,2013-03-05 14:32:00,
2013-03-05 06:33:00,48.0,34.8,30.06,NNE,32,0.0,0.0,60,0.00,BKN,FEW,0.00,9.4,WeatherDisplay:10.37,2013-03-05 14:33:00,
2013-03-05 06:34:00,48.0,34.8,30.06,NNE,32,0.0,0.0,60,0.00,BKN,FEW,0.00,9.4,WeatherDisplay:10.37,2013-03-05 14:34:00,
2013-03-05 06:36:00,48.2,35.4,30.06,NNE,32,0.0,0.0,61,0.00,BKN,FEW,0.00,11.6,WeatherDisplay:10.37,2013-03-05 14:36:00,
2013-03-05 06:38:00,48.2,35.0,30.06,NNE,32,0.0,0.0,60,0.00,BKN,FEW,0.00,12.6,WeatherDisplay:10.37,2013-03-05 14:38:00,
2013-03-05 06:39:00,48.3,34.6,30.06,NNE,32,0.0,0.0,59,0.00,BKN,FEW,0.00,12.6,WeatherDisplay:10.37,2013-03-05 14:39:00,
2013-03-05 06:40:00,48.3,34.6,30.06,NNE,32,0.0,0.0,59,0.00,BKN,FEW,0.00,12.6,WeatherDisplay:10.37,2013-03-05 14:40:00,
2013-03-05 06:41:00,48.3,34.6,30.06,NNE,32,0.0,0.0,59,0.00,BKN,FEW,0.00,12.6,WeatherDisplay:10.37,2013-03-05 14:41:00,
2013-03-05 06:44:00,48.5,34.4,30.06,NNE,32,0.0,0.0,58,0.00,BKN,FEW,0.00,14.7,WeatherDisplay:10.37,2013-03-05 14:44:00,
2013-03-05 06:45:00,48.5,34.8,30.06,NNE,32,0.0,0.0,59,0.00,BKN,FEW,0.00,14.7,WeatherDisplay:10.37,2013-03-05 14:45:00,
2013-03-05 06:46:00,48.5,34.8,30.06,NNE,32,0.0,0.0,59,0.00,BKN,FEW,0.00,16.8,WeatherDisplay:10.37,2013-03-05 14:46:00,
2013-03-05 06:49:00,48.5,35.2,30.06,NNE,32,0.0,0.0,60,0.00,BKN,FEW,0.00,18.9,WeatherDisplay:10.37,2013-03-05 14:49:00,
2013-03-05 06:50:00,48.5,35.2,30.06,NNE,32,0.0,0.0,60,0.00,BKN,FEW,0.00,18.9,WeatherDisplay:10.37,2013-03-05 14:50:00,
2013-03-05 06:51:00,48.5,35.2,30.06,NNE,32,0.0,0.0,60,0.00,BKN,FEW,0.00,19.9,WeatherDisplay:10.37,2013-03-05 14:51:00,
2013-03-05 06:52:00,48.5,35.2,30.06,NNE,32,0.0,0.0,60,0.00,BKN,FEW,0.00,19.9,WeatherDisplay:10.37,2013-03-05 14:52:00,
2013-03-05 06:54:00,48.3,34.6,30.06,NNE,32,0.0,0.0,59,0.00,BKN,FEW,0.00,24.1,WeatherDisplay:10.37,2013-03-05 14:54:00,
2013-03-05 06:56:00,48.3,34.6,30.06,NNE,32,0.0,0.0,59,0.00,BKN,FEW,0.00,24.1,WeatherDisplay:10.37,2013-03-05 14:56:00,
2013-03-05 06:58:00,48.2,35.0,30.06,NNE,32,0.0,0.0,60,0.00,BKN,FEW,0.00,26.3,WeatherDisplay:10.37,2013-03-05 14:58:00,
2013-03-05 07:01:00,48.0,35.2,30.06,NW,307,0.0,0.0,61,0.00,BKN,FEW,0.00,27.3,WeatherDisplay:10.37,2013-03-05 15:01:00,
2013-03-05 07:03:00,47.3,36.1,30.06,West,273,1.8,5.8,65,0.00,BKN,FEW,0.00,31.5,WeatherDisplay:10.37,2013-03-05 15:03:00,
2013-03-05 07:04:00,47.1,35.9,30.06,West,273,0.3,5.8,65,0.00,BKN,FEW,0.00,33.6,WeatherDisplay:10.37,2013-03-05 15:04:00,
2013-03-05 07:06:00,46.5,36.1,30.06,West,261,3.0,5.8,67,0.00,BKN,FEW,0.00,34.6,WeatherDisplay:10.37,2013-03-05 15:06:00,
2013-03-05 07:09:00,45.7,36.8,30.06,WSW,254,0.0,0.0,71,0.00,BKN,FEW,0.00,38.9,WeatherDisplay:10.37,2013-03-05 15:09:00,
2013-03-05 07:11:00,45.2,37.1,30.06,WSW,254,0.0,0.0,73,0.00,BKN,FEW,0.00,44.1,WeatherDisplay:10.37,2013-03-05 15:11:00,
2013-03-05 07:14:00,44.6,36.8,30.06,WSW,246,0.0,0.0,74,0.00,BKN,FEW,0.00,46.2,WeatherDisplay:10.37,2013-03-05 15:14:00,
2013-03-05 07:16:00,44.2,36.8,30.07,WSW,246,0.0,0.0,75,0.00,BKN,FEW,0.00,49.4,WeatherDisplay:10.37,2013-03-05 15:16:00,
2013-03-05 07:17:00,44.1,37.0,30.07,WSW,246,0.0,0.0,76,0.00,BKN,FEW,0.00,51.5,WeatherDisplay:10.37,2013-03-05 15:17:00,
2013-03-05 07:19:00,43.9,36.8,30.07,WSW,246,0.0,0.0,76,0.00,BKN,FEW,0.00,53.5,WeatherDisplay:10.37,2013-03-05 15:19:00,
2013-03-05 07:20:00,43.8,37.1,30.07,WSW,246,0.0,0.0,77,0.00,BKN,FEW,0.00,60.9,WeatherDisplay:10.37,2013-03-05 15:20:00,
2013-03-05 07:22:00,43.6,36.9,30.07,WSW,246,0.0,0.0,77,0.00,BKN,FEW,0.00,77.7,WeatherDisplay:10.37,2013-03-05 15:22:00,
2013-03-05 07:24:00,43.5,37.1,30.07,WSW,246,0.0,0.0,78,0.00,BKN,FEW,0.00,77.7,WeatherDisplay:10.37,2013-03-05 15:24:00,
2013-03-05 07:25:00,43.5,37.1,30.07,WSW,246,0.0,0.0,78,0.00,BKN,FEW,0.00,116.5,WeatherDisplay:10.37,2013-03-05 15:25:00,
2013-03-05 07:27:00,43.5,37.4,30.07,WSW,246,0.0,0.0,79,0.00,SCT,FEW,0.00,136.5,WeatherDisplay:10.37,2013-03-05 15:27:00,
2013-03-05 07:29:00,43.5,37.4,30.07,WSW,246,0.0,0.0,79,0.00,SCT,FEW,0.00,171.2,WeatherDisplay:10.37,2013-03-05 15:29:00,
2013-03-05 07:30:00,43.5,37.4,30.07,WSW,246,0.0,0.0,79,0.00,SCT,FEW,0.00,171.2,WeatherDisplay:10.37,2013-03-05 15:30:00,
2013-03-05 07:32:00,43.6,37.8,30.08,WSW,246,0.0,0.0,80,0.00,CLR,FEW,0.00,195.3,WeatherDisplay:10.37,2013-03-05 15:32:00,
2013-03-05 07:34:00,43.9,38.1,30.08,WSW,246,0.0,0.0,80,0.00,CLR,FEW,0.00,262.5,WeatherDisplay:10.37,2013-03-05 15:34:00,
2013-03-05 07:36:00,44.3,38.8,30.08,WSW,246,0.0,0.0,81,0.00,CLR,FEW,0.00,253.1,WeatherDisplay:10.37,2013-03-05 15:36:00,
2013-03-05 07:37:00,44.6,39.1,30.08,WSW,246,0.0,0.0,81,0.00,CLR,FEW,0.00,240.4,WeatherDisplay:10.37,2013-03-05 15:37:00,
2013-03-05 07:38:00,44.8,39.0,30.08,WSW,246,0.0,0.0,80,0.00,CLR,FEW,0.00,240.4,WeatherDisplay:10.37,2013-03-05 15:38:00,
2013-03-05 07:41:00,45.5,39.7,30.08,WSW,246,0.0,0.0,80,0.00,CLR,FEW,0.00,269.9,WeatherDisplay:10.37,2013-03-05 15:41:00,
2013-03-05 07:42:00,46.0,40.2,30.08,WSW,246,0.0,0.0,80,0.00,CLR,FEW,0.00,243.6,WeatherDisplay:10.37,2013-03-05 15:42:00,
2013-03-05 07:43:00,46.1,39.9,30.08,WSW,246,0.0,0.0,79,0.00,CLR,FEW,0.00,256.2,WeatherDisplay:10.37,2013-03-05 15:43:00,
2013-03-05 07:45:00,46.3,39.8,30.08,WSW,246,0.0,0.0,78,0.00,CLR,FEW,0.00,250.9,WeatherDisplay:10.37,2013-03-05 15:45:00,
2013-03-05 07:48:00,47.1,40.3,30.08,WSW,246,0.0,1.2,77,0.00,CLR,FEW,0.00,267.8,WeatherDisplay:10.37,2013-03-05 15:48:00,
2013-03-05 07:50:00,47.4,40.2,30.08,WSW,246,0.0,0.0,76,0.00,CLR,FEW,0.00,275.1,WeatherDisplay:10.37,2013-03-05 15:50:00,
2013-03-05 07:54:00,47.9,40.0,30.08,WSW,246,0.0,1.2,74,0.00,CLR,FEW,0.00,292.9,WeatherDisplay:10.37,2013-03-05 15:54:00,
2013-03-05 07:55:00,48.0,39.8,30.08,WSW,247,0.0,1.2,73,0.00,CLR,FEW,0.00,292.9,WeatherDisplay:10.37,2013-03-05 15:55:00,
2013-03-05 07:56:00,48.2,39.9,30.08,WSW,246,0.0,0.0,73,0.00,CLR,FEW,0.00,301.4,WeatherDisplay:10.37,2013-03-05 15:56:00,
2013-03-05 07:59:00,48.6,39.6,30.08,WSW,247,0.0,0.0,71,0.00,CLR,FEW,0.00,302.4,WeatherDisplay:10.37,2013-03-05 15:59:00,
2013-03-05 08:00:00,48.6,39.3,30.07,WSW,247,0.0,0.0,70,0.00,CLR,FEW,0.00,302.4,WeatherDisplay:10.37,2013-03-05 16:00:00,
2013-03-05 08:01:00,48.8,39.4,30.07,WSW,247,0.0,0.0,70,0.00,CLR,FEW,0.00,291.9,WeatherDisplay:10.37,2013-03-05 16:01:00,
2013-03-05 08:04:00,49.5,39.7,30.07,WSW,248,0.0,0.0,69,0.00,CLR,FEW,0.00,321.3,WeatherDisplay:10.37,2013-03-05 16:04:00,
2013-03-05 08:05:00,49.8,40.0,30.07,WSW,247,0.0,0.0,69,0.00,CLR,FEW,0.00,326.6,WeatherDisplay:10.37,2013-03-05 16:05:00,
2013-03-05 08:06:00,49.9,39.8,30.07,WSW,247,0.0,0.0,68,0.00,CLR,FEW,0.00,328.6,WeatherDisplay:10.37,2013-03-05 16:06:00,
2013-03-05 08:07:00,50.4,39.5,30.07,WSW,247,0.0,0.0,66,0.00,CLR,FEW,0.00,330.8,WeatherDisplay:10.37,2013-03-05 16:07:00,
2013-03-05 08:10:00,51.0,39.6,30.07,WSW,248,0.0,0.0,65,0.00,CLR,FEW,0.00,341.3,WeatherDisplay:10.37,2013-03-05 16:10:00,
2013-03-05 08:11:00,51.3,39.9,30.07,WSW,247,0.0,0.0,65,0.00,CLR,FEW,0.00,348.6,WeatherDisplay:10.37,2013-03-05 16:11:00,
2013-03-05 08:12:00,51.6,40.2,30.07,WSW,247,0.0,0.0,65,0.00,CLR,FEW,0.00,352.8,WeatherDisplay:10.37,2013-03-05 16:12:00,
2013-03-05 08:13:00,51.6,40.2,30.07,WSW,248,0.0,0.0,65,0.00,CLR,FEW,0.00,352.8,WeatherDisplay:10.37,2013-03-05 16:13:00,
2013-03-05 08:15:00,52.2,40.0,30.07,WSW,247,0.0,0.0,63,0.00,CLR,FEW,0.00,363.3,WeatherDisplay:10.37,2013-03-05 16:15:00,
2013-03-05 08:16:00,52.5,39.8,30.07,WSW,247,0.0,0.0,62,0.00,CLR,FEW,0.00,370.6,WeatherDisplay:10.37,2013-03-05 16:16:00,
2013-03-05 08:17:00,52.8,40.1,30.07,WSW,247,0.0,0.0,62,0.00,CLR,FEW,0.00,376.9,WeatherDisplay:10.37,2013-03-05 16:17:00,
2013-03-05 08:18:00,52.9,40.2,30.07,WSW,247,0.0,0.0,62,0.00,CLR,FEW,0.00,292.9,WeatherDisplay:10.37,2013-03-05 16:18:00,
2013-03-05 08:20:00,53.2,40.1,30.07,WSW,247,0.0,0.0,61,0.00,CLR,FEW,0.00,265.6,WeatherDisplay:10.37,2013-03-05 16:20:00,
2013-03-05 08:22:00,53.5,39.9,30.07,WSW,247,0.0,0.0,60,0.00,CLR,FEW,0.00,387.4,WeatherDisplay:10.37,2013-03-05 16:22:00,
2013-03-05 08:24:00,53.8,40.2,30.07,WSW,247,0.0,0.0,60,0.00,CLR,FEW,0.00,376.9,WeatherDisplay:10.37,2013-03-05 16:24:00,
2013-03-05 08:26:00,54.2,40.2,30.07,WSW,247,0.0,0.0,59,0.00,CLR,FEW,0.00,399.0,WeatherDisplay:10.37,2013-03-05 16:26:00,
2013-03-05 08:28:00,54.8,39.8,30.07,SSE,154,0.0,1.2,57,0.00,CLR,FEW,0.00,407.4,WeatherDisplay:10.37,2013-03-05 16:28:00,
2013-03-05 08:29:00,54.8,39.4,30.07,SSE,154,0.0,0.0,56,0.00,CLR,FEW,0.00,407.4,WeatherDisplay:10.37,2013-03-05 16:29:00,
2013-03-05 08:30:00,54.8,39.4,30.07,WSW,237,0.0,0.0,56,0.00,CLR,FEW,0.00,407.4,WeatherDisplay:10.37,2013-03-05 16:30:00,
2013-03-05 08:32:00,55.1,39.2,30.07,SSE,154,0.0,0.0,55,0.00,CLR,FEW,0.00,345.4,WeatherDisplay:10.37,2013-03-05 16:32:00,
2013-03-05 08:34:00,55.3,39.4,30.07,SSE,154,0.0,0.0,55,0.00,CLR,FEW,0.00,430.5,WeatherDisplay:10.37,2013-03-05 16:34:00,
2013-03-05 08:35:00,55.2,39.3,30.07,South,172,0.0,0.0,55,0.00,CLR,FEW,0.00,430.5,WeatherDisplay:10.37,2013-03-05 16:35:00,
2013-03-05 08:37:00,55.6,39.7,30.07,SSE,154,0.0,0.0,55,0.00,CLR,FEW,0.00,431.6,WeatherDisplay:10.37,2013-03-05 16:37:00,
2013-03-05 08:39:00,55.7,39.8,30.07,SSE,154,0.0,0.0,55,0.00,CLR,FEW,0.00,441.0,WeatherDisplay:10.37,2013-03-05 16:39:00,
2013-03-05 08:40:00,55.7,39.8,30.07,SSE,154,0.0,0.0,55,0.00,CLR,FEW,0.00,441.0,WeatherDisplay:10.37,2013-03-05 16:40:00,
2013-03-05 08:42:00,56.0,39.6,30.07,SSE,154,0.0,0.0,54,0.00,CLR,FEW,0.00,438.9,WeatherDisplay:10.37,2013-03-05 16:42:00,
2013-03-05 08:45:00,56.2,39.3,30.07,SSE,154,0.0,0.0,53,0.00,CLR,FEW,0.00,455.7,WeatherDisplay:10.37,2013-03-05 16:45:00,
2013-03-05 08:46:00,56.5,39.1,30.07,SSE,154,0.0,0.0,52,0.00,CLR,FEW,0.00,455.7,WeatherDisplay:10.37,2013-03-05 16:46:00,
2013-03-05 08:49:00,57.0,38.0,30.07,SSE,150,0.0,0.0,49,0.00,CLR,FEW,0.00,463.1,WeatherDisplay:10.37,2013-03-05 16:49:00,
2013-03-05 08:50:00,57.0,37.0,30.07,SSE,150,0.0,0.0,47,0.00,CLR,FEW,0.00,468.3,WeatherDisplay:10.37,2013-03-05 16:50:00,
2013-03-05 08:51:00,57.2,36.6,30.07,SSE,150,0.0,0.0,46,0.00,CLR,FEW,0.00,470.4,WeatherDisplay:10.37,2013-03-05 16:51:00,
2013-03-05 08:54:00,57.6,36.4,30.07,SSE,150,0.0,0.0,45,0.00,CLR,FEW,0.00,481.9,WeatherDisplay:10.37,2013-03-05 16:54:00,
2013-03-05 08:56:00,57.8,36.0,30.07,SSE,150,0.0,0.0,44,0.00,CLR,FEW,0.00,484.1,WeatherDisplay:10.37,2013-03-05 16:56:00,
2013-03-05 08:57:00,58.0,36.8,30.07,SSE,148,0.0,0.0,45,0.00,CLR,FEW,0.00,467.3,WeatherDisplay:10.37,2013-03-05 16:57:00,
2013-03-05 08:59:00,58.1,36.9,30.07,SSE,148,0.0,0.0,45,0.00,CLR,FEW,0.00,496.6,WeatherDisplay:10.37,2013-03-05 16:59:00,
2013-03-05 09:01:00,58.4,37.7,30.06,SSE,148,0.0,0.0,46,0.00,CLR,FEW,0.00,501.9,WeatherDisplay:10.37,2013-03-05 17:01:00,
2013-03-05 09:02:00,58.4,37.1,30.06,SSE,148,0.0,0.0,45,0.00,CLR,FEW,0.00,504.0,WeatherDisplay:10.37,2013-03-05 17:02:00,
2013-03-05 09:04:00,58.9,38.1,30.06,SSE,148,0.0,0.0,46,0.00,CLR,FEW,0.00,511.4,WeatherDisplay:10.37,2013-03-05 17:04:00,
2013-03-05 09:05:00,59.0,38.2,30.06,SSE,148,0.0,0.0,46,0.00,CLR,FEW,0.00,514.5,WeatherDisplay:10.37,2013-03-05 17:05:00,
2013-03-05 09:06:00,59.0,37.1,30.06,SSE,148,0.0,0.0,44,0.00,CLR,FEW,0.00,518.7,WeatherDisplay:10.37,2013-03-05 17:06:00,
2013-03-05 09:08:00,59.3,36.8,30.06,SSE,148,0.0,0.0,43,0.00,CLR,FEW,0.00,526.0,WeatherDisplay:10.37,2013-03-05 17:08:00,
2013-03-05 09:09:00,59.6,36.5,30.06,SSE,148,0.0,0.0,42,0.00,CLR,FEW,0.00,528.1,WeatherDisplay:10.37,2013-03-05 17:09:00,
2013-03-05 09:11:00,60.1,36.9,30.06,SSE,148,0.0,0.0,42,0.00,CLR,FEW,0.00,528.1,WeatherDisplay:10.37,2013-03-05 17:11:00,
2013-03-05 09:13:00,60.4,35.9,30.06,SSE,148,0.0,0.0,40,0.00,CLR,FEW,0.00,542.9,WeatherDisplay:10.37,2013-03-05 17:13:00,
2013-03-05 09:14:00,60.5,36.0,30.06,SSE,148,0.0,0.0,40,0.00,CLR,FEW,0.00,540.8,WeatherDisplay:10.37,2013-03-05 17:14:00,
2013-03-05 09:16:00,60.7,36.2,30.06,SSE,148,0.0,0.0,40,0.00,CLR,FEW,0.00,524.0,WeatherDisplay:10.37,2013-03-05 17:16:00,
2013-03-05 09:17:00,60.7,36.2,30.06,SSE,148,0.0,0.0,40,0.00,CLR,FEW,0.00,524.0,WeatherDisplay:10.37,2013-03-05 17:17:00,
2013-03-05 09:19:00,60.5,36.7,30.06,SSE,148,0.0,0.0,41,0.00,CLR,FEW,0.00,560.7,WeatherDisplay:10.37,2013-03-05 17:19:00,
2013-03-05 09:20:00,60.1,36.3,30.06,SSE,148,0.0,0.0,41,0.00,CLR,FEW,0.00,567.0,WeatherDisplay:10.37,2013-03-05 17:20:00,
2013-03-05 09:21:00,59.9,36.7,30.06,SSE,148,0.0,0.0,42,0.00,CLR,FEW,0.00,567.0,WeatherDisplay:10.37,2013-03-05 17:21:00,
2013-03-05 09:22:00,59.9,37.3,30.06,SSE,148,0.0,0.0,43,0.00,CLR,FEW,0.00,567.0,WeatherDisplay:10.37,2013-03-05 17:22:00,
2013-03-05 09:24:00,59.9,37.3,30.06,SSE,148,0.0,0.0,43,0.00,CLR,FEW,0.00,574.4,WeatherDisplay:10.37,2013-03-05 17:24:00,
2013-03-05 09:26:00,59.9,36.7,30.06,SSE,148,0.0,0.0,42,0.00,CLR,FEW,0.00,581.7,WeatherDisplay:10.37,2013-03-05 17:26:00,
2013-03-05 09:27:00,60.1,36.9,30.06,SSE,148,0.0,0.0,42,0.00,CLR,FEW,0.00,584.9,WeatherDisplay:10.37,2013-03-05 17:27:00,
2013-03-05 09:29:00,60.2,35.8,30.06,SW,230,0.0,0.0,40,0.00,CLR,FEW,0.00,589.0,WeatherDisplay:10.37,2013-03-05 17:29:00,
2013-03-05 09:30:00,60.4,35.9,30.06,SW,230,0.0,0.0,40,0.00,CLR,FEW,0.00,596.4,WeatherDisplay:10.37,2013-03-05 17:30:00,
2013-03-05 09:32:00,60.4,36.6,30.06,SW,230,0.0,0.0,41,0.00,CLR,FEW,0.00,601.6,WeatherDisplay:10.37,2013-03-05 17:32:00,
2013-03-05 09:33:00,60.4,36.6,30.06,SW,230,0.0,0.0,41,0.00,CLR,FEW,0.00,601.6,WeatherDisplay:10.37,2013-03-05 17:33:00,
2013-03-05 09:35:00,60.3,35.2,30.06,SSW,210,1.0,0.0,39,0.00,CLR,FEW,0.00,605.9,WeatherDisplay:10.37,2013-03-05 17:35:00,
2013-03-05 09:38:00,59.9,36.1,30.06,WSW,246,0.0,0.0,41,0.00,CLR,FEW,0.00,528.1,WeatherDisplay:10.37,2013-03-05 17:38:00,
2013-03-05 09:40:00,59.9,36.1,30.06,WSW,246,0.0,0.0,41,0.00,CLR,FEW,0.00,418.9,WeatherDisplay:10.37,2013-03-05 17:40:00,
2013-03-05 09:41:00,59.9,36.7,30.06,WSW,246,0.0,0.0,42,0.00,CLR,FEW,0.00,492.4,WeatherDisplay:10.37,2013-03-05 17:41:00,
2013-03-05 09:43:00,60.1,38.7,30.06,WSW,246,0.0,0.0,45,0.00,CLR,FEW,0.00,629.0,WeatherDisplay:10.37,2013-03-05 17:43:00,
2013-03-05 09:45:00,60.2,37.0,30.06,WSW,246,0.0,0.0,42,0.00,CLR,FEW,0.00,640.5,WeatherDisplay:10.37,2013-03-05 17:45:00,
2013-03-05 09:47:00,60.4,35.9,30.06,WSW,246,0.0,0.0,40,0.00,CLR,FEW,0.00,643.6,WeatherDisplay:10.37,2013-03-05 17:47:00,
2013-03-05 09:49:00,60.4,37.8,30.06,WSW,246,0.0,0.0,43,0.00,CLR,FEW,0.00,643.6,WeatherDisplay:10.37,2013-03-05 17:49:00,
2013-03-05 09:51:00,60.4,35.9,30.06,WSW,240,0.0,0.0,40,0.00,CLR,FEW,0.00,642.6,WeatherDisplay:10.37,2013-03-05 17:51:00,
2013-03-05 09:52:00,60.5,37.3,30.06,WSW,240,0.0,0.0,42,0.00,CLR,FEW,0.00,655.2,WeatherDisplay:10.37,2013-03-05 17:52:00,
2013-03-05 09:54:00,60.9,38.2,30.06,WSW,240,0.0,0.0,43,0.00,CLR,FEW,0.00,657.3,WeatherDisplay:10.37,2013-03-05 17:54:00,
2013-03-05 09:57:00,61.2,36.7,30.06,WSW,240,0.1,1.3,40,0.00,CLR,FEW,0.00,660.5,WeatherDisplay:10.37,2013-03-05 17:57:00,
2013-03-05 09:58:00,61.2,36.0,30.06,WSW,240,0.0,1.2,39,0.00,CLR,FEW,0.00,660.5,WeatherDisplay:10.37,2013-03-05 17:58:00,
2013-03-05 09:59:00,61.2,36.7,30.06,WSW,241,0.0,0.0,40,0.00,CLR,FEW,0.00,662.5,WeatherDisplay:10.37,2013-03-05 17:59:00,
2013-03-05 10:02:00,61.2,36.7,30.06,WSW,241,0.0,0.0,40,0.00,CLR,FEW,0.00,669.9,WeatherDisplay:10.37,2013-03-05 18:02:00,
2013-03-05 10:04:00,61.3,37.4,30.06,WSW,241,0.0,0.0,41,0.00,CLR,FEW,0.00,675.1,WeatherDisplay:10.37,2013-03-05 18:04:00,
2013-03-05 10:05:00,61.3,37.4,30.06,WSW,241,0.0,0.0,41,0.00,CLR,FEW,0.00,606.9,WeatherDisplay:10.37,2013-03-05 18:05:00,
2013-03-05 10:08:00,61.3,36.8,30.06,WSW,241,0.0,0.0,40,0.00,CLR,FEW,0.00,679.4,WeatherDisplay:10.37,2013-03-05 18:08:00,
2013-03-05 10:09:00,61.5,37.6,30.06,WSW,241,0.0,0.0,41,0.00,CLR,FEW,0.00,684.6,WeatherDisplay:10.37,2013-03-05 18:09:00,
2013-03-05 10:10:00,61.6,37.7,30.06,WSW,241,0.0,0.0,41,0.00,CLR,FEW,0.00,682.5,WeatherDisplay:10.37,2013-03-05 18:10:00,
2013-03-05 10:13:00,61.8,36.6,30.06,WSW,241,0.0,0.0,39,0.00,CLR,FEW,0.00,688.8,WeatherDisplay:10.37,2013-03-05 18:13:00,
2013-03-05 10:15:00,62.0,36.7,30.06,WSW,241,0.1,1.2,39,0.00,CLR,FEW,0.00,692.0,WeatherDisplay:10.37,2013-03-05 18:15:00,
2013-03-05 10:16:00,62.0,35.4,30.05,WSW,241,0.0,1.2,37,0.00,CLR,FEW,0.00,697.2,WeatherDisplay:10.37,2013-03-05 18:16:00,
2013-03-05 10:18:00,62.1,37.5,30.05,WSW,240,0.0,0.0,40,0.00,CLR,FEW,0.00,699.3,WeatherDisplay:10.37,2013-03-05 18:18:00,
2013-03-05 10:20:00,62.4,36.4,30.05,WSW,238,0.1,0.0,38,0.00,CLR,FEW,0.00,704.5,WeatherDisplay:10.37,2013-03-05 18:20:00,
2013-03-05 10:21:00,62.6,37.3,30.05,WSW,239,0.1,1.2,39,0.00,CLR,FEW,0.00,706.6,WeatherDisplay:10.37,2013-03-05 18:21:00,
2013-03-05 10:23:00,62.9,38.2,30.05,WSW,238,0.0,5.8,40,0.00,CLR,FEW,0.00,710.9,WeatherDisplay:10.37,2013-03-05 18:23:00,
2013-03-05 10:25:00,63.4,38.6,30.05,WSW,238,0.0,1.2,40,0.00,CLR,FEW,0.00,714.0,WeatherDisplay:10.37,2013-03-05 18:25:00,
2013-03-05 10:26:00,63.5,38.7,30.05,WSW,238,0.0,0.0,40,0.00,CLR,FEW,0.00,716.1,WeatherDisplay:10.37,2013-03-05 18:26:00,
2013-03-05 10:28:00,63.7,37.6,30.05,WSW,238,0.0,1.2,38,0.00,CLR,FEW,0.00,723.5,WeatherDisplay:10.37,2013-03-05 18:28:00,
2013-03-05 10:30:00,63.7,37.6,30.05,WNW,300,0.3,1.2,38,0.00,CLR,FEW,0.00,721.4,WeatherDisplay:10.37,2013-03-05 18:30:00,
2013-03-05 10:31:00,63.9,37.8,30.05,WNW,300,0.1,1.2,38,0.00,CLR,FEW,0.00,725.5,WeatherDisplay:10.37,2013-03-05 18:31:00,
2013-03-05 10:33:00,64.0,37.2,30.05,WSW,254,3.6,6.9,37,0.00,CLR,FEW,0.00,728.7,WeatherDisplay:10.37,2013-03-05 18:33:00,
2013-03-05 10:36:00,64.0,38.5,30.05,WSW,253,0.0,0.0,39,0.00,CLR,FEW,0.00,732.9,WeatherDisplay:10.37,2013-03-05 18:36:00,
2013-03-05 10:38:00,64.0,37.2,30.05,WSW,253,0.0,1.2,37,0.00,CLR,FEW,0.00,735.0,WeatherDisplay:10.37,2013-03-05 18:38:00,
2013-03-05 10:39:00,64.2,39.4,30.05,WSW,255,0.0,0.0,40,0.00,CLR,FEW,0.00,738.1,WeatherDisplay:10.37,2013-03-05 18:39:00,
2013-03-05 10:41:00,64.3,38.8,30.05,WSW,255,0.0,0.0,39,0.00,CLR,FEW,0.00,742.4,WeatherDisplay:10.37,2013-03-05 18:41:00,
2013-03-05 10:43:00,64.5,39.6,30.05,WSW,255,0.0,0.0,40,0.00,CLR,FEW,0.00,743.4,WeatherDisplay:10.37,2013-03-05 18:43:00,
2013-03-05 10:44:00,64.5,40.3,30.05,WSW,255,0.0,0.0,41,0.00,CLR,FEW,0.00,743.4,WeatherDisplay:10.37,2013-03-05 18:44:00,
2013-03-05 10:46:00,64.7,41.7,30.05,WSW,255,3.8,6.9,43,0.00,CLR,FEW,0.00,747.6,WeatherDisplay:10.37,2013-03-05 18:46:00,
2013-03-05 10:47:00,64.7,40.4,30.05,WSW,255,0.0,5.8,41,0.00,CLR,FEW,0.00,749.7,WeatherDisplay:10.37,2013-03-05 18:47:00,
2013-03-05 10:49:00,64.8,41.2,30.05,WSW,254,0.5,5.8,42,0.00,CLR,FEW,0.00,750.8,WeatherDisplay:10.37,2013-03-05 18:49:00,
2013-03-05 10:50:00,65.0,40.0,30.05,WSW,254,3.0,0.0,40,0.00,CLR,FEW,0.00,752.9,WeatherDisplay:10.37,2013-03-05 18:50:00,
2013-03-05 10:52:00,65.2,41.5,30.05,WSW,251,0.0,0.0,42,0.00,CLR,FEW,0.00,758.1,WeatherDisplay:10.37,2013-03-05 18:52:00,
2013-03-05 10:54:00,65.3,41.0,30.05,WSW,251,0.0,0.0,41,0.00,CLR,FEW,0.00,757.0,WeatherDisplay:10.37,2013-03-05 18:54:00,
2013-03-05 10:55:00,65.6,40.6,30.05,WSW,251,0.0,0.0,40,0.00,CLR,FEW,0.00,760.2,WeatherDisplay:10.37,2013-03-05 18:55:00,
2013-03-05 10:57:00,66.0,41.0,30.05,WSW,251,3.0,6.5,40,0.00,CLR,FEW,0.00,762.3,WeatherDisplay:10.37,2013-03-05 18:57:00,
2013-03-05 11:01:00,66.1,40.4,30.05,WSW,251,0.0,0.0,39,0.00,CLR,FEW,0.00,767.5,WeatherDisplay:10.37,2013-03-05 19:01:00,
2013-03-05 11:02:00,66.1,40.4,30.05,WSW,251,0.0,0.0,39,0.00,CLR,FEW,0.00,769.6,WeatherDisplay:10.37,2013-03-05 19:02:00,
2013-03-05 11:03:00,66.3,41.2,30.05,WSW,251,0.0,0.0,40,0.00,CLR,FEW,0.00,771.8,WeatherDisplay:10.37,2013-03-05 19:03:00,
2013-03-05 11:07:00,66.8,40.4,30.05,WSW,251,0.3,1.3,38,0.00,CLR,FEW,0.00,777.0,WeatherDisplay:10.37,2013-03-05 19:07:00,
2013-03-05 11:08:00,66.9,40.5,30.05,WSW,251,0.1,1.2,38,0.00,CLR,FEW,0.00,779.1,WeatherDisplay:10.37,2013-03-05 19:08:00,
2013-03-05 11:09:00,66.9,40.5,30.05,WSW,251,0.0,0.0,38,0.00,CLR,FEW,0.00,779.1,WeatherDisplay:10.37,2013-03-05 19:09:00,
2013-03-05 11:13:00,67.3,40.8,30.05,WNW,294,0.0,0.0,38,0.00,CLR,FEW,0.00,782.3,WeatherDisplay:10.37,2013-03-05 19:13:00,
2013-03-05 11:14:00,67.6,41.1,30.05,WNW,303,0.0,0.0,38,0.00,CLR,FEW,0.00,784.4,WeatherDisplay:10.37,2013-03-05 19:14:00,
2013-03-05 11:18:00,67.4,40.2,30.04,WNW,292,0.0,1.2,37,0.00,CLR,FEW,0.00,786.5,WeatherDisplay:10.37,2013-03-05 19:18:00,
2013-03-05 11:19:00,67.4,40.9,30.04,WNW,293,0.0,0.0,38,0.00,CLR,FEW,0.00,786.5,WeatherDisplay:10.37,2013-03-05 19:19:00,
2013-03-05 11:20:00,67.4,40.9,30.04,WNW,287,0.0,0.0,38,0.00,CLR,FEW,0.00,786.5,WeatherDisplay:10.37,2013-03-05 19:20:00,
2013-03-05 11:23:00,67.4,40.2,30.04,WSW,250,1.9,8.1,37,0.00,CLR,FEW,0.00,789.6,WeatherDisplay:10.37,2013-03-05 19:23:00,
2013-03-05 11:24:00,67.4,40.9,30.04,WSW,248,4.9,8.1,38,0.00,CLR,FEW,0.00,793.8,WeatherDisplay:10.37,2013-03-05 19:24:00,
2013-03-05 11:26:00,67.6,41.7,30.04,WSW,248,0.0,0.0,39,0.00,CLR,FEW,0.00,797.0,WeatherDisplay:10.37,2013-03-05 19:26:00,
2013-03-05 11:28:00,67.9,40.7,30.04,SSW,196,0.3,6.5,37,0.00,CLR,FEW,0.00,797.0,WeatherDisplay:10.37,2013-03-05 19:28:00,
2013-03-05 11:30:00,68.1,40.1,30.04,WSW,248,2.0,0.0,36,0.00,CLR,FEW,0.00,801.1,WeatherDisplay:10.37,2013-03-05 19:30:00,
2013-03-05 11:32:00,68.6,40.6,30.04,WSW,253,3.7,6.9,36,0.00,CLR,FEW,0.00,801.1,WeatherDisplay:10.37,2013-03-05 19:32:00,
2013-03-05 11:34:00,68.8,39.3,30.04,SW,229,0.0,0.0,34,0.00,CLR,FEW,0.00,801.1,WeatherDisplay:10.37,2013-03-05 19:34:00,
2013-03-05 11:35:00,68.9,40.1,30.04,WSW,255,0.1,2.3,35,0.00,CLR,FEW,0.00,804.3,WeatherDisplay:10.37,2013-03-05 19:35:00,
2013-03-05 11:36:00,68.9,40.1,30.04,WSW,255,0.2,1.3,35,0.00,CLR,FEW,0.00,804.3,WeatherDisplay:10.37,2013-03-05 19:36:00,
2013-03-05 11:37:00,69.1,40.3,30.04,South,191,0.1,1.2,35,0.00,CLR,FEW,0.00,804.3,WeatherDisplay:10.37,2013-03-05 19:37:00,
2013-03-05 11:39:00,69.1,40.3,30.04,WSW,239,0.1,1.2,35,0.00,CLR,FEW,0.00,806.4,WeatherDisplay:10.37,2013-03-05 19:39:00,
2013-03-05 11:40:00,69.4,40.5,30.04,WSW,240,0.0,1.2,35,0.00,CLR,FEW,0.00,806.4,WeatherDisplay:10.37,2013-03-05 19:40:00,
2013-03-05 11:41:00,69.4,40.5,30.04,WSW,240,0.1,1.2,35,0.00,CLR,FEW,0.00,806.4,WeatherDisplay:10.37,2013-03-05 19:41:00,
2013-03-05 11:44:00,69.4,40.5,30.04,WSW,240,0.1,1.2,35,0.00,CLR,FEW,0.00,804.3,WeatherDisplay:10.37,2013-03-05 19:44:00,
2013-03-05 11:45:00,69.1,40.3,30.03,WSW,240,2.8,6.9,35,0.00,CLR,FEW,0.00,806.4,WeatherDisplay:10.37,2013-03-05 19:45:00,
2013-03-05 11:47:00,68.9,40.8,30.03,WSW,240,0.3,1.3,36,0.00,CLR,FEW,0.00,808.5,WeatherDisplay:10.37,2013-03-05 19:47:00,
2013-03-05 11:49:00,68.8,40.7,30.03,WSW,240,3.8,6.9,36,0.00,CLR,FEW,0.00,808.5,WeatherDisplay:10.37,2013-03-05 19:49:00,
2013-03-05 11:50:00,68.4,40.4,30.03,WSW,258,0.9,6.9,36,0.00,CLR,FEW,0.00,808.5,WeatherDisplay:10.37,2013-03-05 19:50:00,
2013-03-05 11:53:00,68.4,41.1,30.03,WSW,258,0.0,0.0,37,0.00,CLR,FEW,0.00,811.6,WeatherDisplay:10.37,2013-03-05 19:53:00,
2013-03-05 11:54:00,68.6,41.3,30.03,WSW,257,0.1,1.2,37,0.00,CLR,FEW,0.00,813.8,WeatherDisplay:10.37,2013-03-05 19:54:00,
2013-03-05 11:55:00,68.6,40.6,30.03,WSW,258,0.0,1.2,36,0.00,CLR,FEW,0.00,811.6,WeatherDisplay:10.37,2013-03-05 19:55:00,
2013-03-05 11:58:00,68.8,41.5,30.03,West,275,4.0,9.2,37,0.00,CLR,FEW,0.00,811.6,WeatherDisplay:10.37,2013-03-05 19:58:00,
2013-03-05 11:59:00,68.6,42.0,30.03,West,272,0.3,5.8,38,0.00,CLR,FEW,0.00,811.6,WeatherDisplay:10.37,2013-03-05 19:59:00,
2013-03-05 12:00:00,68.6,42.0,30.03,West,272,0.0,1.2,38,0.00,CLR,FEW,0.00,815.9,WeatherDisplay:10.37,2013-03-05 20:00:00,
2013-03-05 12:01:00,68.6,42.0,30.03,West,272,0.0,0.0,38,0.00,CLR,FEW,0.00,815.9,WeatherDisplay:10.37,2013-03-05 20:01:00,
2013-03-05 12:03:00,68.6,42.6,30.03,West,272,0.0,1.2,39,0.00,CLR,FEW,0.00,818.0,WeatherDisplay:10.37,2013-03-05 20:03:00,
2013-03-05 12:05:00,68.7,43.4,30.03,West,273,0.0,0.0,40,0.00,CLR,FEW,0.00,815.9,WeatherDisplay:10.37,2013-03-05 20:05:00,
2013-03-05 12:06:00,68.9,42.2,30.03,West,271,0.1,1.2,38,0.00,CLR,FEW,0.00,813.8,WeatherDisplay:10.37,2013-03-05 20:06:00,
2013-03-05 12:08:00,68.9,42.9,30.03,SW,217,0.9,9.2,39,0.00,CLR,FEW,0.00,813.8,WeatherDisplay:10.37,2013-03-05 20:08:00,
2013-03-05 12:11:00,69.3,41.2,30.03,SSW,207,6.7,9.2,36,0.00,CLR,FEW,0.00,813.8,WeatherDisplay:10.37,2013-03-05 20:11:00,
2013-03-05 12:12:00,68.9,40.8,30.03,WSW,239,6.5,8.1,36,0.00,CLR,FEW,0.00,818.0,WeatherDisplay:10.37,2013-03-05 20:12:00,
2013-03-05 12:13:00,68.9,40.8,30.03,WSW,246,9.0,9.2,36,0.00,CLR,FEW,0.00,818.0,WeatherDisplay:10.37,2013-03-05 20:13:00,
2013-03-05 12:16:00,68.9,42.2,30.03,WSW,246,9.4,12.7,38,0.00,CLR,FEW,0.00,811.6,WeatherDisplay:10.37,2013-03-05 20:16:00,
2013-03-05 12:18:00,68.6,42.6,30.03,WSW,239,11.6,12.7,39,0.00,CLR,FEW,0.00,811.6,WeatherDisplay:10.37,2013-03-05 20:18:00,
2013-03-05 12:21:00,67.8,42.6,30.03,SW,224,0.1,1.2,40,0.00,CLR,FEW,0.00,819.0,WeatherDisplay:10.37,2013-03-05 20:21:00,
2013-03-05 12:22:00,67.8,41.3,30.03,SW,234,2.2,10.4,38,0.00,CLR,FEW,0.00,818.0,WeatherDisplay:10.37,2013-03-05 20:22:00,
2013-03-05 12:23:00,67.9,41.3,30.03,SW,234,0.4,6.9,38,0.00,CLR,FEW,0.00,813.8,WeatherDisplay:10.37,2013-03-05 20:23:00,
2013-03-05 12:26:00,68.4,41.1,30.03,WSW,247,3.0,6.9,37,0.00,CLR,FEW,0.00,811.6,WeatherDisplay:10.37,2013-03-05 20:26:00,
2013-03-05 12:27:00,68.6,42.6,30.03,WSW,247,0.5,5.8,39,0.00,CLR,FEW,0.00,813.8,WeatherDisplay:10.37,2013-03-05 20:27:00,
2013-03-05 12:28:00,68.6,42.6,30.03,WSW,247,0.5,5.8,39,0.00,CLR,FEW,0.00,813.8,WeatherDisplay:10.37,2013-03-05 20:28:00,
2013-03-05 12:32:00,68.6,42.6,30.02,SW,215,2.6,9.2,39,0.00,CLR,FEW,0.00,808.5,WeatherDisplay:10.37,2013-03-05 20:32:00,
2013-03-05 12:33:00,68.4,42.5,30.02,SSW,213,5.0,9.2,39,0.00,CLR,FEW,0.00,808.5,WeatherDisplay:10.37,2013-03-05 20:33:00,
2013-03-05 12:38:00,67.8,41.3,30.02,WSW,248,2.9,9.2,38,0.00,CLR,FEW,0.00,808.5,WeatherDisplay:10.37,2013-03-05 20:38:00,
2013-03-05 12:39:00,67.8,42.6,30.02,WSW,256,1.4,6.9,40,0.00,CLR,FEW,0.00,808.5,WeatherDisplay:10.37,2013-03-05 20:39:00,
2013-03-05 12:43:00,68.1,41.5,30.02,WSW,254,1.4,9.2,38,0.00,CLR,FEW,0.00,806.4,WeatherDisplay:10.37,2013-03-05 20:43:00,
2013-03-05 12:44:00,68.1,41.5,30.02,WSW,251,0.4,2.6,38,0.00,CLR,FEW,0.00,806.4,WeatherDisplay:10.37,2013-03-05 20:44:00,
2013-03-05 12:48:00,68.4,42.5,30.01,WSW,243,2.5,6.5,39,0.00,CLR,FEW,0.00,799.0,WeatherDisplay:10.37,2013-03-05 20:48:00,
2013-03-05 12:49:00,68.4,41.8,30.01,WSW,242,5.6,8.1,38,0.00,CLR,FEW,0.00,797.0,WeatherDisplay:10.37,2013-03-05 20:49:00,
2013-03-05 12:50:00,68.4,42.5,30.01,WSW,240,3.0,0.0,39,0.00,CLR,FEW,0.00,797.0,WeatherDisplay:10.37,2013-03-05 20:50:00,
2013-03-05 12:55:00,68.3,41.7,30.01,SW,233,1.0,0.0,38,0.00,CLR,FEW,0.00,791.7,WeatherDisplay:10.37,2013-03-05 20:55:00,
2013-03-05 12:56:00,68.3,43.0,30.01,WSW,240,2.8,6.5,40,0.00,CLR,FEW,0.00,793.8,WeatherDisplay:10.37,2013-03-05 20:56:00,
2013-03-05 13:00:00,68.3,43.7,30.01,WSW,248,0.0,2.3,41,0.00,CLR,FEW,0.00,788.5,WeatherDisplay:10.37,2013-03-05 21:00:00,
2013-03-05 13:01:00,68.3,43.0,30.01,WSW,241,7.3,11.5,40,0.00,CLR,FEW,0.00,791.7,WeatherDisplay:10.37,2013-03-05 21:01:00,
2013-03-05 13:02:00,68.3,43.0,30.01,WSW,241,2.6,11.5,40,0.00,CLR,FEW,0.00,793.8,WeatherDisplay:10.37,2013-03-05 21:02:00,
2013-03-05 13:03:00,68.1,43.5,30.01,WSW,246,6.4,11.5,41,0.00,CLR,FEW,0.00,793.8,WeatherDisplay:10.37,2013-03-05 21:03:00,
2013-03-05 13:06:00,67.8,43.2,30.01,WSW,252,0.0,0.0,41,0.00,CLR,FEW,0.00,793.8,WeatherDisplay:10.37,2013-03-05 21:06:00,
2013-03-05 13:07:00,67.9,42.7,30.01,WSW,246,5.9,10.4,40,0.00,CLR,FEW,0.00,791.7,WeatherDisplay:10.37,2013-03-05 21:07:00,
2013-03-05 13:08:00,67.9,43.3,30.01,WSW,246,9.2,13.0,41,0.00,CLR,FEW,0.00,786.5,WeatherDisplay:10.37,2013-03-05 21:08:00,
2013-03-05 13:11:00,68.3,43.7,30.01,WSW,257,4.4,8.1,41,0.00,CLR,FEW,0.00,784.4,WeatherDisplay:10.37,2013-03-05 21:11:00,
2013-03-05 13:12:00,68.4,43.1,30.01,WSW,251,0.7,8.1,40,0.00,CLR,FEW,0.00,786.5,WeatherDisplay:10.37,2013-03-05 21:12:00,
2013-03-05 13:13:00,68.4,43.1,30.01,WSW,244,8.0,12.7,40,0.00,CLR,FEW,0.00,789.6,WeatherDisplay:10.37,2013-03-05 21:13:00,
2013-03-05 13:14:00,68.4,43.1,30.01,WSW,245,1.1,11.5,40,0.00,CLR,FEW,0.00,786.5,WeatherDisplay:10.37,2013-03-05 21:14:00,
2013-03-05 13:16:00,68.6,43.3,30.01,SW,215,1.4,9.2,40,0.00,CLR,FEW,0.00,779.1,WeatherDisplay:10.37,2013-03-05 21:16:00,
2013-03-05 13:18:00,68.4,43.8,30.01,WSW,246,4.6,10.4,41,0.00,CLR,FEW,0.00,781.2,WeatherDisplay:10.37,2013-03-05 21:18:00,
2013-03-05 13:19:00,68.4,44.4,30.01,WSW,246,4.1,6.9,42,0.00,CLR,FEW,0.00,777.0,WeatherDisplay:10.37,2013-03-05 21:19:00,
2013-03-05 13:20:00,68.8,44.1,30.01,SW,226,1.2,8.1,41,0.00,CLR,FEW,0.00,774.9,WeatherDisplay:10.37,2013-03-05 21:20:00,
2013-03-05 13:24:00,68.8,44.1,30.01,WSW,242,8.5,13.8,41,0.00,CLR,FEW,0.00,769.6,WeatherDisplay:10.37,2013-03-05 21:24:00,
2013-03-05 13:26:00,68.4,43.1,30.01,WSW,242,2.0,13.8,40,0.00,CLR,FEW,0.00,767.5,WeatherDisplay:10.37,2013-03-05 21:26:00,
2013-03-05 13:29:00,68.8,43.5,30.01,WSW,246,1.6,1.6,40,0.00,CLR,FEW,0.00,767.5,WeatherDisplay:10.37,2013-03-05 21:29:00,
2013-03-05 13:31:00,68.6,43.9,30.01,WSW,246,1.5,9.1,41,0.00,CLR,FEW,0.00,767.5,WeatherDisplay:10.37,2013-03-05 21:31:00,
2013-03-05 13:32:00,68.8,44.1,30.01,WSW,245,6.1,9.2,41,0.00,CLR,FEW,0.00,765.5,WeatherDisplay:10.37,2013-03-05 21:32:00,
2013-03-05 13:34:00,68.4,43.8,30.01,WSW,240,1.2,9.2,41,0.00,CLR,FEW,0.00,762.3,WeatherDisplay:10.37,2013-03-05 21:34:00,
2013-03-05 13:37:00,68.8,43.5,30.01,WSW,247,1.7,9.1,40,0.00,CLR,FEW,0.00,752.9,WeatherDisplay:10.37,2013-03-05 21:37:00,
2013-03-05 13:38:00,68.9,42.9,30.01,WSW,247,4.0,9.2,39,0.00,CLR,FEW,0.00,752.9,WeatherDisplay:10.37,2013-03-05 21:38:00,
2013-03-05 13:40:00,68.9,43.6,30.01,WSW,243,5.0,0.0,40,0.00,CLR,FEW,0.00,752.9,WeatherDisplay:10.37,2013-03-05 21:40:00,
2013-03-05 13:42:00,68.9,43.6,30.01,SW,226,0.0,0.0,40,0.00,CLR,FEW,0.00,743.4,WeatherDisplay:10.37,2013-03-05 21:42:00,
2013-03-05 13:45:00,69.0,44.3,30.01,SW,234,1.0,0.0,41,0.00,CLR,FEW,0.00,747.6,WeatherDisplay:10.37,2013-03-05 21:45:00,
2013-03-05 13:48:00,69.1,44.4,30.00,SSW,207,0.1,1.3,41,0.00,CLR,FEW,0.00,736.0,WeatherDisplay:10.37,2013-03-05 21:48:00,
2013-03-05 13:50:00,69.1,43.8,30.00,WSW,248,2.0,5.8,40,0.00,CLR,FEW,0.00,735.0,WeatherDisplay:10.37,2013-03-05 21:50:00,
2013-03-05 13:52:00,68.4,43.1,30.00,SSW,194,3.5,8.1,40,0.00,CLR,FEW,0.00,730.8,WeatherDisplay:10.37,2013-03-05 21:52:00,
2013-03-05 13:53:00,68.1,43.5,30.00,WSW,243,1.6,8.1,41,0.00,CLR,FEW,0.00,677.3,WeatherDisplay:10.37,2013-03-05 21:53:00,
2013-03-05 13:55:00,67.6,43.7,30.00,WSW,243,0.0,0.0,42,0.00,CLR,FEW,0.00,713.0,WeatherDisplay:10.37,2013-03-05 21:55:00,
2013-03-05 13:58:00,67.6,43.7,30.00,WSW,246,0.5,6.9,42,0.00,CLR,FEW,0.00,720.3,WeatherDisplay:10.37,2013-03-05 21:58:00,
2013-03-05 14:00:00,67.6,43.7,30.00,WSW,246,2.7,8.1,42,0.00,CLR,FEW,0.00,713.0,WeatherDisplay:10.37,2013-03-05 22:00:00,
2013-03-05 14:01:00,67.6,43.7,30.00,WSW,245,0.0,0.0,42,0.00,CLR,FEW,0.00,714.0,WeatherDisplay:10.37,2013-03-05 22:01:00,
2013-03-05 14:04:00,67.4,43.5,30.00,WSW,247,2.2,9.2,42,0.00,CLR,FEW,0.00,714.0,WeatherDisplay:10.37,2013-03-05 22:04:00,
2013-03-05 14:05:00,67.6,41.7,30.00,WSW,257,9.4,12.7,39,0.00,CLR,FEW,0.00,713.0,WeatherDisplay:10.37,2013-03-05 22:05:00,
2013-03-05 14:07:00,67.4,40.2,30.00,SSW,203,4.9,11.5,37,0.00,CLR,FEW,0.00,708.8,WeatherDisplay:10.37,2013-03-05 22:07:00,
2013-03-05 14:10:00,67.6,42.4,30.00,WSW,246,10.2,14.3,40,0.00,CLR,FEW,0.00,701.4,WeatherDisplay:10.37,2013-03-05 22:10:00,
2013-03-05 14:11:00,67.6,41.1,30.00,WSW,245,7.7,16.1,38,0.00,CLR,FEW,0.00,699.3,WeatherDisplay:10.37,2013-03-05 22:11:00,
2013-03-05 14:12:00,67.9,41.3,30.00,WSW,248,6.7,10.4,38,0.00,CLR,FEW,0.00,694.0,WeatherDisplay:10.37,2013-03-05 22:12:00,
2013-03-05 14:16:00,67.9,39.9,30.00,SW,227,11.4,11.5,36,0.00,CLR,FEW,0.00,686.7,WeatherDisplay:10.37,2013-03-05 22:16:00,
2013-03-05 14:17:00,67.8,40.6,30.00,WSW,244,7.4,11.5,37,0.00,CLR,FEW,0.00,682.5,WeatherDisplay:10.37,2013-03-05 22:17:00,
2013-03-05 14:18:00,67.6,40.4,30.00,WSW,245,10.0,11.7,37,0.00,CLR,FEW,0.00,679.4,WeatherDisplay:10.37,2013-03-05 22:18:00,
2013-03-05 14:22:00,67.9,39.9,30.00,WSW,247,0.0,8.1,36,0.00,CLR,FEW,0.00,679.4,WeatherDisplay:10.37,2013-03-05 22:22:00,
2013-03-05 14:27:00,68.8,41.5,30.00,SSW,205,0.2,3.5,37,0.00,CLR,FEW,0.00,660.5,WeatherDisplay:10.37,2013-03-05 22:27:00,
2013-03-05 14:28:00,68.8,42.1,30.00,WSW,249,0.0,3.5,38,0.00,CLR,FEW,0.00,660.5,WeatherDisplay:10.37,2013-03-05 22:28:00,
2013-03-05 14:32:00,68.3,41.0,30.00,WSW,252,5.2,11.5,37,0.00,CLR,FEW,0.00,650.0,WeatherDisplay:10.37,2013-03-05 22:32:00,
2013-03-05 14:33:00,68.1,40.8,30.00,WSW,251,1.4,11.5,37,0.00,CLR,FEW,0.00,647.9,WeatherDisplay:10.37,2013-03-05 22:33:00,
2013-03-05 14:37:00,67.8,41.3,30.00,WSW,251,6.7,13.0,38,0.00,CLR,FEW,0.00,638.4,WeatherDisplay:10.37,2013-03-05 22:37:00,
2013-03-05 14:38:00,67.6,41.1,30.00,WSW,248,8.7,12.7,38,0.00,CLR,FEW,0.00,633.1,WeatherDisplay:10.37,2013-03-05 22:38:00,
2013-03-05 14:43:00,68.3,41.7,30.00,WSW,238,9.6,11.7,38,0.00,CLR,FEW,0.00,616.4,WeatherDisplay:10.37,2013-03-05 22:43:00,
2013-03-05 14:44:00,68.3,40.3,30.00,WSW,250,5.2,11.5,36,0.00,CLR,FEW,0.00,613.2,WeatherDisplay:10.37,2013-03-05 22:44:00,
2013-03-05 14:46:00,68.1,41.5,30.00,WSW,246,11.0,13.8,38,0.00,CLR,FEW,0.00,605.9,WeatherDisplay:10.37,2013-03-05 22:46:00,
2013-03-05 14:48:00,68.3,40.3,30.00,WSW,252,4.0,10.4,36,0.00,CLR,FEW,0.00,598.5,WeatherDisplay:10.37,2013-03-05 22:48:00,
2013-03-05 14:49:00,68.3,40.3,30.00,SSW,211,12.5,12.7,36,0.00,CLR,FEW,0.00,559.6,WeatherDisplay:10.37,2013-03-05 22:49:00,
2013-03-05 14:50:00,68.3,40.3,30.00,SW,216,8.1,12.7,36,0.00,CLR,FEW,0.00,596.4,WeatherDisplay:10.37,2013-03-05 22:50:00,
2013-03-05 14:54:00,68.1,40.1,30.00,WSW,246,10.8,12.7,36,0.00,CLR,FEW,0.00,589.0,WeatherDisplay:10.37,2013-03-05 22:54:00,
2013-03-05 14:56:00,67.6,41.1,30.00,WSW,244,15.0,17.3,38,0.00,CLR,FEW,0.00,579.6,WeatherDisplay:10.37,2013-03-05 22:56:00,
2013-03-05 14:57:00,67.3,41.5,30.00,WSW,249,18.0,18.0,39,0.00,CLR,FEW,0.00,575.4,WeatherDisplay:10.37,2013-03-05 22:57:00,
2013-03-05 14:59:00,66.8,41.0,30.00,WSW,250,12.6,12.7,39,0.00,CLR,FEW,0.00,574.4,WeatherDisplay:10.37,2013-03-05 22:59:00,
2013-03-05 15:00:00,66.8,41.7,30.00,WSW,257,12.6,12.7,40,0.00,CLR,FEW,0.00,570.1,WeatherDisplay:10.37,2013-03-05 23:00:00,
2013-03-05 15:01:00,66.8,39.7,30.00,WSW,243,16.4,17.3,37,0.00,CLR,FEW,0.00,560.7,WeatherDisplay:10.37,2013-03-05 23:01:00,
2013-03-05 15:02:00,66.8,40.4,30.00,WSW,252,12.8,18.4,38,0.00,CLR,FEW,0.00,559.6,WeatherDisplay:10.37,2013-03-05 23:02:00,
2013-03-05 15:04:00,66.6,40.9,30.00,WSW,240,11.7,17.3,39,0.00,CLR,FEW,0.00,553.4,WeatherDisplay:10.37,2013-03-05 23:04:00,
2013-03-05 15:05:00,66.8,41.0,30.00,WSW,243,17.6,17.6,39,0.00,CLR,FEW,0.00,550.2,WeatherDisplay:10.37,2013-03-05 23:05:00,
2013-03-05 15:07:00,66.8,41.0,30.00,WSW,248,14.9,16.1,39,0.00,CLR,FEW,0.00,542.9,WeatherDisplay:10.37,2013-03-05 23:07:00,
2013-03-05 15:08:00,66.8,41.0,30.00,WSW,249,14.7,14.7,39,0.00,CLR,FEW,0.00,540.8,WeatherDisplay:10.37,2013-03-05 23:08:00,
2013-03-05 15:09:00,66.8,41.0,30.00,WSW,246,7.7,13.8,39,0.00,CLR,FEW,0.00,537.6,WeatherDisplay:10.37,2013-03-05 23:09:00,
2013-03-05 15:11:00,67.1,42.0,30.00,WSW,244,10.3,13.0,40,0.00,CLR,FEW,0.00,521.9,WeatherDisplay:10.37,2013-03-05 23:11:00,
2013-03-05 15:12:00,67.1,42.6,30.00,WSW,246,13.0,13.0,41,0.00,CLR,FEW,0.00,521.9,WeatherDisplay:10.37,2013-03-05 23:12:00,
2013-03-05 15:13:00,67.1,41.3,30.00,WSW,245,15.4,15.4,39,0.00,CLR,FEW,0.00,520.8,WeatherDisplay:10.37,2013-03-05 23:13:00,
2013-03-05 15:15:00,66.9,42.4,30.00,WSW,246,13.7,13.7,41,0.00,CLR,FEW,0.00,514.5,WeatherDisplay:10.37,2013-03-05 23:15:00,
2013-03-05 15:17:00,66.8,42.3,30.00,WSW,248,17.2,17.3,41,0.00,CLR,FEW,0.00,513.5,WeatherDisplay:10.37,2013-03-05 23:17:00,
2013-03-05 15:18:00,66.6,42.2,30.00,WSW,242,17.2,17.3,41,0.00,CLR,FEW,0.00,513.5,WeatherDisplay:10.37,2013-03-05 23:18:00,
2013-03-05 15:22:00,66.9,42.4,30.00,WSW,245,14.0,16.9,41,0.00,CLR,FEW,0.00,491.4,WeatherDisplay:10.37,2013-03-05 23:22:00,
2013-03-05 15:23:00,66.8,41.7,30.00,WSW,244,18.5,18.5,40,0.00,CLR,FEW,0.00,485.1,WeatherDisplay:10.37,2013-03-05 23:23:00,
2013-03-05 15:24:00,66.4,41.3,30.00,WSW,238,19.9,19.9,40,0.00,CLR,FEW,0.00,481.9,WeatherDisplay:10.37,2013-03-05 23:24:00,
2013-03-05 15:27:00,66.1,42.3,30.00,SW,220,12.1,12.1,42,0.00,CLR,FEW,0.00,477.8,WeatherDisplay:10.37,2013-03-05 23:27:00,
2013-03-05 15:28:00,66.1,42.3,30.00,SW,218,13.8,14.3,42,0.00,CLR,FEW,0.00,470.4,WeatherDisplay:10.37,2013-03-05 23:28:00,
2013-03-05 15:29:00,66.3,42.5,30.00,WSW,244,12.1,13.8,42,0.00,CLR,FEW,0.00,467.3,WeatherDisplay:10.37,2013-03-05 23:29:00,
2013-03-05 15:33:00,66.3,42.5,30.01,SW,223,12.0,12.0,42,0.00,CLR,FEW,0.00,455.7,WeatherDisplay:10.37,2013-03-05 23:33:00,
2013-03-05 15:34:00,66.3,41.2,30.01,WSW,242,13.2,16.1,40,0.00,CLR,FEW,0.00,455.7,WeatherDisplay:10.37,2013-03-05 23:34:00,
2013-03-05 15:35:00,66.3,42.5,30.01,WSW,244,11.6,16.1,42,0.00,CLR,FEW,0.00,450.4,WeatherDisplay:10.37,2013-03-05 23:35:00,
2013-03-05 15:38:00,66.0,42.2,30.01,WSW,246,11.8,11.8,42,0.00,CLR,FEW,0.00,437.9,WeatherDisplay:10.37,2013-03-05 23:38:00,
2013-03-05 15:40:00,66.3,43.1,30.01,SW,219,8.8,10.4,43,0.00,CLR,FEW,0.00,435.8,WeatherDisplay:10.37,2013-03-05 23:40:00,
2013-03-05 15:41:00,66.3,43.1,30.01,SW,218,7.8,10.4,43,0.00,CLR,FEW,0.00,435.8,WeatherDisplay:10.37,2013-03-05 23:41:00,
2013-03-05 15:44:00,66.0,42.9,30.01,SW,226,10.6,12.7,43,0.00,CLR,FEW,0.00,428.4,WeatherDisplay:10.37,2013-03-05 23:44:00,
2013-03-05 15:45:00,66.0,42.9,30.00,SW,217,9.6,9.6,43,0.00,CLR,FEW,0.00,426.3,WeatherDisplay:10.37,2013-03-05 23:45:00,
2013-03-05 15:46:00,66.0,43.5,30.00,SSW,194,9.2,9.2,44,0.00,CLR,FEW,0.00,423.1,WeatherDisplay:10.37,2013-03-05 23:46:00,
2013-03-05 15:50:00,66.1,42.9,30.00,WSW,239,12.0,0.0,43,0.00,CLR,FEW,0.00,409.5,WeatherDisplay:10.37,2013-03-05 23:50:00,
2013-03-05 15:51:00,66.0,42.9,30.00,SSW,205,11.1,13.8,43,0.00,CLR,FEW,0.00,404.3,WeatherDisplay:10.37,2013-03-05 23:51:00,
2013-03-05 15:52:00,65.6,42.5,30.00,SW,219,9.1,9.2,43,0.00,CLR,FEW,0.00,402.1,WeatherDisplay:10.37,2013-03-05 23:52:00,
2013-03-05 15:56:00,65.5,43.0,30.00,SW,217,5.7,8.1,44,0.00,CLR,FEW,0.00,391.6,WeatherDisplay:10.37,2013-03-05 23:56:00,
2013-03-05 15:59:00,65.5,43.0,30.00,SSW,212,8.3,9.2,44,0.00,CLR,FEW,0.00,380.1,WeatherDisplay:10.37,2013-03-05 23:59:00,
2013-03-05 16:01:00,65.5,43.6,30.00,WSW,254,10.0,10.4,45,0.00,CLR,FEW,0.00,378.0,WeatherDisplay:10.37,2013-03-06 00:01:00,
2013-03-05 16:03:00,65.5,43.6,30.00,WSW,245,7.9,13.8,45,0.00,CLR,FEW,0.00,367.5,WeatherDisplay:10.37,2013-03-06 00:03:00,
2013-03-05 16:05:00,65.4,42.9,30.00,SW,235,7.0,0.0,44,0.00,CLR,FEW,0.00,360.1,WeatherDisplay:10.37,2013-03-06 00:05:00,
2013-03-05 16:06:00,65.3,43.4,30.00,WSW,244,6.9,7.8,45,0.00,CLR,FEW,0.00,304.5,WeatherDisplay:10.37,2013-03-06 00:06:00,
2013-03-05 16:07:00,65.3,43.4,30.00,WSW,244,8.4,10.4,45,0.00,CLR,FEW,0.00,321.3,WeatherDisplay:10.37,2013-03-06 00:07:00,
2013-03-05 16:09:00,65.3,44.0,30.00,WSW,245,7.3,10.4,46,0.00,CLR,FEW,0.00,338.1,WeatherDisplay:10.37,2013-03-06 00:09:00,
2013-03-05 16:10:00,65.5,43.6,30.00,WSW,250,12.4,12.4,45,0.00,CLR,FEW,0.00,338.1,WeatherDisplay:10.37,2013-03-06 00:10:00,
2013-03-05 16:12:00,65.2,43.3,30.00,WSW,244,8.7,9.2,45,0.00,CLR,FEW,0.00,333.9,WeatherDisplay:10.37,2013-03-06 00:12:00,
2013-03-05 16:13:00,65.0,43.7,30.00,WSW,244,9.4,10.4,46,0.00,CLR,FEW,0.00,326.6,WeatherDisplay:10.37,2013-03-06 00:13:00,
2013-03-05 16:14:00,65.0,43.7,30.00,WSW,246,10.4,10.4,46,0.00,CLR,FEW,0.00,324.4,WeatherDisplay:10.37,2013-03-06 00:14:00,
2013-03-05 16:15:00,65.0,43.7,30.00,WSW,251,7.5,11.5,46,0.00,CLR,FEW,0.00,309.8,WeatherDisplay:10.37,2013-03-06 00:15:00,
2013-03-05 16:17:00,65.0,43.1,30.00,SW,221,6.6,8.1,45,0.00,CLR,FEW,0.00,232.1,WeatherDisplay:10.37,2013-03-06 00:17:00,
2013-03-05 16:19:00,65.2,43.9,30.00,WSW,248,7.8,9.2,46,0.00,CLR,FEW,0.00,238.3,WeatherDisplay:10.37,2013-03-06 00:19:00,
2013-03-05 16:20:00,65.2,43.9,30.00,WSW,245,8.0,0.0,46,0.00,CLR,FEW,0.00,304.5,WeatherDisplay:10.37,2013-03-06 00:20:00,
2013-03-05 16:21:00,64.8,42.9,30.00,WSW,246,12.4,12.4,45,0.00,CLR,FEW,0.00,299.3,WeatherDisplay:10.37,2013-03-06 00:21:00,
2013-03-05 16:22:00,64.5,43.8,30.00,WSW,246,10.4,10.4,47,0.00,CLR,FEW,0.00,297.1,WeatherDisplay:10.37,2013-03-06 00:22:00,
2013-03-05 16:24:00,64.3,44.7,30.00,WSW,248,8.1,10.4,49,0.00,CLR,FEW,0.00,291.9,WeatherDisplay:10.37,2013-03-06 00:24:00,
2013-03-05 16:25:00,64.3,44.7,30.00,WSW,245,10.0,0.0,49,0.00,CLR,FEW,0.00,287.7,WeatherDisplay:10.37,2013-03-06 00:25:00,
2013-03-05 16:26:00,64.3,44.2,30.00,SSW,206,7.0,8.1,48,0.00,CLR,FEW,0.00,280.4,WeatherDisplay:10.37,2013-03-06 00:26:00,
2013-03-05 16:27:00,64.2,44.1,30.00,SW,229,7.5,8.1,48,0.00,CLR,FEW,0.00,280.4,WeatherDisplay:10.37,2013-03-06 00:27:00,
2013-03-05 16:30:00,64.0,44.4,30.00,WSW,244,8.1,9.2,49,0.00,CLR,FEW,0.00,175.3,WeatherDisplay:10.37,2013-03-06 00:30:00,
2013-03-05 16:32:00,64.0,45.0,30.00,WSW,248,5.3,9.1,50,0.00,FEW,,0.00,87.2,WeatherDisplay:10.37,2013-03-06 00:32:00,
2013-03-05 16:33:00,63.9,44.4,30.00,WSW,246,11.5,11.5,49,0.00,SCT,FEW,0.00,72.5,WeatherDisplay:10.37,2013-03-06 00:33:00,
2013-03-05 16:35:00,63.6,45.1,30.00,SW,234,10.0,0.0,51,0.00,BKN,FEW,0.00,73.5,WeatherDisplay:10.37,2013-03-06 00:35:00,
2013-03-05 16:37:00,63.4,44.9,30.00,WSW,246,9.6,10.4,51,0.00,BKN,FEW,0.00,58.8,WeatherDisplay:10.37,2013-03-06 00:37:00,
2013-03-05 16:38:00,63.4,44.9,30.00,WSW,246,9.8,10.4,51,0.00,BKN,FEW,0.00,58.8,WeatherDisplay:10.37,2013-03-06 00:38:00,
2013-03-05 16:40:00,63.2,45.3,30.00,WSW,242,4.8,9.2,52,0.00,BKN,FEW,0.00,56.7,WeatherDisplay:10.37,2013-03-06 00:40:00,
2013-03-05 16:43:00,63.2,45.3,30.00,WSW,250,5.3,9.2,52,0.00,BKN,FEW,0.00,60.9,WeatherDisplay:10.37,2013-03-06 00:43:00,
2013-03-05 16:46:00,63.1,45.7,30.00,WSW,246,10.8,11.5,53,0.00,BKN,FEW,0.00,63.0,WeatherDisplay:10.37,2013-03-06 00:46:00,
2013-03-05 16:48:00,62.7,45.8,30.00,WSW,240,5.5,6.9,54,0.00,BKN,FEW,0.00,58.8,WeatherDisplay:10.37,2013-03-06 00:48:00,
2013-03-05 16:50:00,62.7,45.8,30.00,WSW,247,8.0,0.0,54,0.00,BKN,FEW,0.00,49.4,WeatherDisplay:10.37,2013-03-06 00:50:00,
2013-03-05 16:51:00,62.6,45.7,30.00,WSW,245,9.2,10.4,54,0.00,BKN,FEW,0.00,51.5,WeatherDisplay:10.37,2013-03-06 00:51:00,
2013-03-05 16:52:00,62.6,45.7,30.00,WSW,252,8.3,10.4,54,0.00,BKN,FEW,0.00,49.4,WeatherDisplay:10.37,2013-03-06 00:52:00,
2013-03-05 16:53:00,62.6,45.7,30.00,WSW,246,7.7,10.4,54,0.00,BKN,FEW,0.00,48.3,WeatherDisplay:10.37,2013-03-06 00:53:00,
2013-03-05 16:55:00,62.6,45.7,30.00,WSW,250,8.3,9.2,54,0.00,BKN,FEW,0.00,46.2,WeatherDisplay:10.37,2013-03-06 00:55:00,
2013-03-05 16:56:00,62.6,45.7,30.00,SW,214,7.2,9.2,54,0.00,BKN,FEW,0.00,44.1,WeatherDisplay:10.37,2013-03-06 00:56:00,
2013-03-05 16:57:00,62.4,46.0,30.00,WSW,238,9.7,9.7,55,0.00,BKN,FEW,0.00,44.1,WeatherDisplay:10.37,2013-03-06 00:57:00,
2013-03-05 16:59:00,62.4,46.0,30.00,WSW,245,9.4,9.4,55,0.00,BKN,FEW,0.00,53.5,WeatherDisplay:10.37,2013-03-06 00:59:00,
2013-03-05 17:01:00,62.3,45.9,30.00,WSW,248,8.1,9.2,55,0.00,BKN,FEW,0.00,49.4,WeatherDisplay:10.37,2013-03-06 01:01:00,
2013-03-05 17:03:00,62.1,45.7,30.00,SW,225,6.5,8.1,55,0.00,BKN,FEW,0.00,41.0,WeatherDisplay:10.37,2013-03-06 01:03:00,
2013-03-05 17:05:00,61.8,45.9,30.00,SSW,199,6.3,6.9,56,0.00,BKN,FEW,0.00,38.9,WeatherDisplay:10.37,2013-03-06 01:05:00,
2013-03-05 17:07:00,61.3,45.5,30.00,SSW,199,6.1,6.1,56,0.00,BKN,FEW,0.00,36.8,WeatherDisplay:10.37,2013-03-06 01:07:00,
2013-03-05 17:09:00,61.0,45.7,30.00,WSW,242,8.3,10.4,57,0.00,BKN,FEW,0.00,36.8,WeatherDisplay:10.37,2013-03-06 01:09:00,
2013-03-05 17:11:00,60.9,46.0,30.00,West,259,6.2,8.1,58,0.00,BKN,FEW,0.00,34.6,WeatherDisplay:10.37,2013-03-06 01:11:00,
2013-03-05 17:14:00,60.7,45.8,30.00,WSW,256,5.8,6.9,58,0.00,BKN,FEW,0.00,38.9,WeatherDisplay:10.37,2013-03-06 01:14:00,
2013-03-05 17:15:00,60.7,45.8,30.00,SW,231,6.0,0.0,58,0.00,BKN,FEW,0.00,31.5,WeatherDisplay:10.37,2013-03-06 01:15:00,
2013-03-05 17:18:00,60.5,45.6,30.00,WSW,244,5.2,9.2,58,0.00,BKN,FEW,0.00,29.4,WeatherDisplay:10.37,2013-03-06 01:18:00,
2013-03-05 17:20:00,60.5,46.1,30.00,WSW,239,5.0,0.0,59,0.00,BKN,FEW,0.00,27.3,WeatherDisplay:10.37,2013-03-06 01:20:00,
2013-03-05 17:25:00,59.9,46.0,30.00,WSW,248,3.9,5.2,60,0.00,BKN,FEW,0.00,26.3,WeatherDisplay:10.37,2013-03-06 01:25:00,
2013-03-05 17:26:00,59.8,45.9,30.00,WSW,242,3.9,5.8,60,0.00,BKN,FEW,0.00,24.1,WeatherDisplay:10.37,2013-03-06 01:26:00,
2013-03-05 17:30:00,59.5,45.6,30.01,WSW,242,2.8,5.2,60,0.00,BKN,FEW,0.00,18.9,WeatherDisplay:10.37,2013-03-06 01:30:00,
2013-03-05 17:31:00,59.3,45.8,30.01,WSW,242,3.7,6.5,61,0.00,BKN,FEW,0.00,18.9,WeatherDisplay:10.37,2013-03-06 01:31:00,
2013-03-05 17:35:00,58.7,45.7,30.01,WSW,245,8.4,9.2,62,0.00,BKN,FEW,0.00,14.7,WeatherDisplay:10.37,2013-03-06 01:35:00,
2013-03-05 17:36:00,58.6,46.0,30.01,WSW,245,7.1,9.2,63,0.00,BKN,FEW,0.00,14.7,WeatherDisplay:10.37,2013-03-06 01:36:00,
2013-03-05 17:37:00,58.4,45.8,30.01,SW,235,3.1,8.1,63,0.00,BKN,FEW,0.00,14.7,WeatherDisplay:10.37,2013-03-06 01:37:00,
2013-03-05 17:41:00,58.0,45.9,30.01,SW,236,3.7,6.9,64,0.00,SCT,FEW,0.00,11.6,WeatherDisplay:10.37,2013-03-06 01:41:00,
2013-03-05 17:42:00,57.8,45.7,30.01,SW,236,6.0,6.9,64,0.00,BKN,FEW,0.00,9.4,WeatherDisplay:10.37,2013-03-06 01:42:00,
2013-03-05 17:43:00,57.6,45.5,30.01,SW,236,5.7,6.9,64,0.00,SCT,FEW,0.00,9.4,WeatherDisplay:10.37,2013-03-06 01:43:00,
2013-03-05 17:47:00,57.3,45.6,30.01,SW,236,4.6,5.8,65,0.00,SCT,FEW,0.00,5.3,WeatherDisplay:10.37,2013-03-06 01:47:00,
2013-03-05 17:48:00,57.2,45.5,30.01,SW,236,3.4,5.8,65,0.00,OVC,FEW,0.00,0.0,WeatherDisplay:10.37,2013-03-06 01:48:00,
2013-03-05 17:50:00,57.0,45.7,30.01,SW,236,0.0,1.2,66,0.00,OVC,FEW,0.00,0.0,WeatherDisplay:10.37,2013-03-06 01:50:00,
2013-03-05 17:52:00,56.9,45.7,30.01,SW,236,0.6,2.3,66,0.00,OVC,FEW,0.00,0.0,WeatherDisplay:10.37,2013-03-06 01:52:00,
2013-03-05 17:54:00,56.9,45.7,30.01,SW,236,0.0,0.0,66,0.00,OVC,FEW,0.00,0.0,WeatherDisplay:10.37,2013-03-06 01:54:00,
2013-03-05 17:55:00,56.9,45.7,30.01,SW,236,0.0,0.0,66,0.00,OVC,FEW,0.00,0.0,WeatherDisplay:10.37,2013-03-06 01:55:00,
2013-03-05 17:58:00,56.6,45.4,30.01,SW,236,0.0,0.0,66,0.00,OVC,FEW,0.00,0.0,WeatherDisplay:10.37,2013-03-06 01:58:00,
2013-03-05 17:59:00,56.6,45.4,30.01,SW,236,0.0,0.0,66,0.00,OVC,FEW,0.00,0.0,WeatherDisplay:10.37,2013-03-06 01:59:00,
2013-03-05 18:00:00,56.5,45.3,30.01,SW,236,0.0,0.0,66,0.00,CLR,FEW,0.00,0.0,WeatherDisplay:10.37,2013-03-06 02:00:00,
2013-03-05 18:03:00,56.5,45.3,30.01,SW,236,0.0,0.0,66,0.00,CLR,FEW,0.00,0.0,WeatherDisplay:10.37,2013-03-06 02:03:00,
2013-03-05 18:04:00,56.3,45.5,30.01,SW,236,0.0,0.0,67,0.00,CLR,FEW,0.00,0.0,WeatherDisplay:10.37,2013-03-06 02:04:00,
2013-03-05 18:06:00,56.3,45.5,30.01,SW,236,0.0,0.0,67,0.00,CLR,FEW,0.00,0.0,WeatherDisplay:10.37,2013-03-06 02:06:00,
2013-03-05 18:08:00,56.2,45.4,30.01,SW,236,0.0,0.0,67,0.00,CLR,FEW,0.00,0.0,WeatherDisplay:10.37,2013-03-06 02:08:00,
2013-03-05 18:09:00,56.2,45.4,30.01,SW,236,0.0,0.0,67,0.00,CLR,FEW,0.00,0.0,WeatherDisplay:10.37,2013-03-06 02:09:00,
2013-03-05 18:10:00,56.2,45.4,30.01,SW,236,0.0,0.0,67,0.00,CLR,FEW,0.00,0.0,WeatherDisplay:10.37,2013-03-06 02:10:00,
2013-03-05 18:12:00,56.0,45.6,30.01,SW,236,0.0,0.0,68,0.00,CLR,FEW,0.00,0.0,WeatherDisplay:10.37,2013-03-06 02:12:00,
2013-03-05 18:14:00,55.9,45.5,30.01,SW,236,0.0,0.0,68,0.00,CLR,FEW,0.00,0.0,WeatherDisplay:10.37,2013-03-06 02:14:00,
2013-03-05 18:15:00,55.7,45.3,30.01,SW,236,0.0,0.0,68,0.00,CLR,FEW,0.00,0.0,WeatherDisplay:10.37,2013-03-06 02:15:00,
2013-03-05 18:19:00,55.4,45.4,30.01,SW,236,0.0,0.0,69,0.00,CLR,FEW,0.00,0.0,WeatherDisplay:10.37,2013-03-06 02:19:00,
2013-03-05 18:20:00,55.4,45.4,30.01,SW,236,0.0,0.0,69,0.00,CLR,FEW,0.00,0.0,WeatherDisplay:10.37,2013-03-06 02:20:00,
2013-03-05 18:21:00,55.4,45.4,30.01,SW,236,0.0,0.0,69,0.00,CLR,FEW,0.00,0.0,WeatherDisplay:10.37,2013-03-06 02:21:00,
2013-03-05 18:24:00,55.1,45.1,30.01,SW,236,0.0,0.0,69,0.00,CLR,FEW,0.00,0.0,WeatherDisplay:10.37,2013-03-06 02:24:00,
2013-03-05 18:25:00,55.1,45.1,30.01,SW,236,0.0,0.0,69,0.00,CLR,FEW,0.00,0.0,WeatherDisplay:10.37,2013-03-06 02:25:00,
2013-03-05 18:26:00,55.1,45.1,30.01,SW,236,0.0,0.0,69,0.00,CLR,FEW,0.00,0.0,WeatherDisplay:10.37,2013-03-06 02:26:00,
2013-03-05 18:29:00,54.7,45.1,30.01,SW,236,0.0,0.0,70,0.00,CLR,FEW,0.00,0.0,WeatherDisplay:10.37,2013-03-06 02:29:00,
2013-03-05 18:30:00,54.5,44.9,30.02,SW,236,0.0,0.0,70,0.00,CLR,FEW,0.00,0.0,WeatherDisplay:10.37,2013-03-06 02:30:00,
2013-03-05 18:31:00,54.5,44.9,30.02,SW,236,0.0,0.0,70,0.00,CLR,FEW,0.00,0.0,WeatherDisplay:10.37,2013-03-06 02:31:00,
2013-03-05 18:34:00,54.2,45.0,30.02,SW,236,0.0,0.0,71,0.00,CLR,FEW,0.00,0.0,WeatherDisplay:10.37,2013-03-06 02:34:00,
2013-03-05 18:36:00,54.1,44.9,30.02,SW,236,0.0,0.0,71,0.00,CLR,FEW,0.00,0.0,WeatherDisplay:10.37,2013-03-06 02:36:00,
2013-03-05 18:38:00,53.8,45.0,30.02,SW,236,0.0,0.0,72,0.00,CLR,FEW,0.00,0.0,WeatherDisplay:10.37,2013-03-06 02:38:00,
2013-03-05 18:39:00,53.8,45.0,30.02,SW,236,0.0,0.0,72,0.00,CLR,FEW,0.00,0.0,WeatherDisplay:10.37,2013-03-06 02:39:00,
2013-03-05 18:41:00,53.6,44.8,30.02,SW,236,0.0,0.0,72,0.00,CLR,FEW,0.00,0.0,WeatherDisplay:10.37,2013-03-06 02:41:00,
2013-03-05 18:44:00,53.3,44.9,30.02,SW,236,0.0,0.0,73,0.00,CLR,FEW,0.00,0.0,WeatherDisplay:10.37,2013-03-06 02:44:00,
2013-03-05 18:46:00,53.1,44.7,30.03,SW,236,0.0,0.0,73,0.00,CLR,FEW,0.00,0.0,WeatherDisplay:10.37,2013-03-06 02:46:00,
2013-03-05 18:51:00,52.6,44.5,30.03,SW,236,0.0,0.0,74,0.00,CLR,FEW,0.00,0.0,WeatherDisplay:10.37,2013-03-06 02:51:00,
2013-03-05 18:52:00,52.5,44.4,30.03,SW,236,0.0,0.0,74,0.00,CLR,FEW,0.00,0.0,WeatherDisplay:10.37,2013-03-06 02:52:00,
2013-03-05 18:56:00,52.0,44.3,30.03,SW,236,0.0,0.0,75,0.00,CLR,FEW,0.00,0.0,WeatherDisplay:10.37,2013-03-06 02:56:00,
2013-03-05 18:57:00,52.0,44.7,30.03,SW,236,0.0,0.0,76,0.00,CLR,FEW,0.00,0.0,WeatherDisplay:10.37,2013-03-06 02:57:00,
2013-03-05 19:02:00,51.6,44.3,30.03,SW,236,0.0,0.0,76,0.00,CLR,FEW,0.00,0.0,WeatherDisplay:10.37,2013-03-06 03:02:00,
2013-03-05 19:03:00,51.6,44.6,30.03,SW,236,0.0,0.0,77,0.00,CLR,FEW,0.00,0.0,WeatherDisplay:10.37,2013-03-06 03:03:00,
2013-03-05 19:07:00,51.3,44.3,30.03,SW,236,0.0,0.0,77,0.00,CLR,FEW,0.00,0.0,WeatherDisplay:10.37,2013-03-06 03:07:00,
2013-03-05 19:08:00,51.1,44.1,30.03,SW,236,0.0,0.0,77,0.00,CLR,FEW,0.00,0.0,WeatherDisplay:10.37,2013-03-06 03:08:00,
2013-03-05 19:09:00,51.1,44.1,30.03,SW,236,0.0,0.0,77,0.00,CLR,FEW,0.00,0.0,WeatherDisplay:10.37,2013-03-06 03:09:00,
2013-03-05 19:13:00,50.8,44.2,30.03,SW,236,0.0,0.0,78,0.00,CLR,FEW,0.00,0.0,WeatherDisplay:10.37,2013-03-06 03:13:00,
2013-03-05 19:14:00,50.8,44.2,30.03,SW,236,0.0,0.0,78,0.00,CLR,FEW,0.00,0.0,WeatherDisplay:10.37,2013-03-06 03:14:00,
2013-03-05 19:19:00,50.7,44.1,30.03,SW,236,0.0,0.0,78,0.00,CLR,FEW,0.00,0.0,WeatherDisplay:10.37,2013-03-06 03:19:00,
2013-03-05 19:21:00,50.5,43.9,30.03,SW,236,0.0,0.0,78,0.00,CLR,FEW,0.00,0.0,WeatherDisplay:10.37,2013-03-06 03:21:00,
2013-03-05 19:24:00,50.4,44.1,30.03,SW,236,0.0,0.0,79,0.00,CLR,FEW,0.00,0.0,WeatherDisplay:10.37,2013-03-06 03:24:00,
2013-03-05 19:26:00,50.4,44.1,30.03,SW,236,0.0,0.0,79,0.00,CLR,FEW,0.00,0.0,WeatherDisplay:10.37,2013-03-06 03:26:00,
2013-03-05 19:29:00,50.2,43.9,30.03,SW,236,0.0,0.0,79,0.00,CLR,FEW,0.00,0.0,WeatherDisplay:10.37,2013-03-06 03:29:00,
2013-03-05 19:31:00,50.1,43.8,30.04,SW,236,0.0,0.0,79,0.00,CLR,FEW,0.00,0.0,WeatherDisplay:10.37,2013-03-06 03:31:00,
2013-03-05 19:32:00,50.1,44.2,30.04,SW,236,0.0,0.0,80,0.00,CLR,FEW,0.00,0.0,WeatherDisplay:10.37,2013-03-06 03:32:00,
2013-03-05 19:35:00,50.1,44.2,30.04,SW,236,0.0,0.0,80,0.00,CLR,FEW,0.00,0.0,WeatherDisplay:10.37,2013-03-06 03:35:00,
2013-03-05 19:37:00,49.9,44.0,30.04,SW,236,0.0,0.0,80,0.00,CLR,FEW,0.00,0.0,WeatherDisplay:10.37,2013-03-06 03:37:00,
2013-03-05 19:40:00,49.9,44.0,30.04,SW,236,0.0,0.0,80,0.00,CLR,FEW,0.00,0.0,WeatherDisplay:10.37,2013-03-06 03:40:00,
2013-03-05 19:41:00,49.9,44.0,30.04,SW,236,0.0,0.0,80,0.00,CLR,FEW,0.00,0.0,WeatherDisplay:10.37,2013-03-06 03:41:00,
2013-03-05 19:43:00,49.9,44.3,30.04,SW,236,0.0,0.0,81,0.00,CLR,FEW,0.00,0.0,WeatherDisplay:10.37,2013-03-06 03:43:00,
2013-03-05 19:45:00,49.9,44.3,30.04,SW,236,0.0,0.0,81,0.00,CLR,FEW,0.00,0.0,WeatherDisplay:10.37,2013-03-06 03:45:00,
2013-03-05 19:46:00,49.9,44.3,30.04,SW,236,0.0,0.0,81,0.00,CLR,FEW,0.00,0.0,WeatherDisplay:10.37,2013-03-06 03:46:00,
2013-03-05 19:48:00,49.9,44.3,30.04,SW,236,0.0,0.0,81,0.00,CLR,FEW,0.00,0.0,WeatherDisplay:10.37,2013-03-06 03:48:00,
2013-03-05 19:49:00,49.9,44.3,30.04,SW,236,0.0,0.0,81,0.00,CLR,FEW,0.00,0.0,WeatherDisplay:10.37,2013-03-06 03:49:00,
2013-03-05 19:50:00,49.9,44.3,30.04,SW,236,0.0,0.0,81,0.00,CLR,FEW,0.00,0.0,WeatherDisplay:10.37,2013-03-06 03:50:00,
2013-03-05 19:51:00,49.9,44.3,30.04,SW,236,0.0,0.0,81,0.00,CLR,FEW,0.00,0.0,WeatherDisplay:10.37,2013-03-06 03:51:00,
2013-03-05 19:53:00,49.9,44.3,30.04,SW,236,0.0,0.0,81,0.00,CLR,FEW,0.00,0.0,WeatherDisplay:10.37,2013-03-06 03:53:00,
2013-03-05 19:54:00,49.9,44.3,30.04,SW,236,0.0,0.0,81,0.00,CLR,FEW,0.00,0.0,WeatherDisplay:10.37,2013-03-06 03:54:00,
2013-03-05 19:56:00,49.9,44.3,30.04,SW,236,0.0,0.0,81,0.00,CLR,FEW,0.00,0.0,WeatherDisplay:10.37,2013-03-06 03:56:00,
2013-03-05 19:58:00,50.1,44.5,30.04,SW,236,0.0,0.0,81,0.00,CLR,FEW,0.00,0.0,WeatherDisplay:10.37,2013-03-06 03:58:00,
2013-03-05 20:00:00,50.1,44.5,30.04,SW,236,0.0,0.0,81,0.00,CLR,FEW,0.00,0.0,WeatherDisplay:10.37,2013-03-06 04:00:00,
2013-03-05 20:01:00,50.1,44.5,30.04,SW,236,0.0,0.0,81,0.00,CLR,FEW,0.00,0.0,WeatherDisplay:10.37,2013-03-06 04:01:00,
2013-03-05 20:03:00,50.1,44.5,30.04,SW,236,0.0,0.0,81,0.00,CLR,FEW,0.00,0.0,WeatherDisplay:10.37,2013-03-06 04:03:00,
2013-03-05 20:06:00,50.1,44.5,30.04,SW,236,0.0,0.0,81,0.00,CLR,FEW,0.00,0.0,WeatherDisplay:10.37,2013-03-06 04:06:00,
2013-03-05 20:07:00,50.1,44.5,30.04,SW,236,0.0,0.0,81,0.00,CLR,FEW,0.00,0.0,WeatherDisplay:10.37,2013-03-06 04:07:00,
2013-03-05 20:08:00,50.1,44.5,30.04,SW,236,0.0,0.0,81,0.00,CLR,FEW,0.00,0.0,WeatherDisplay:10.37,2013-03-06 04:08:00,
2013-03-05 20:09:00,50.1,44.5,30.04,SW,234,0.0,0.0,81,0.00,CLR,FEW,0.00,0.0,WeatherDisplay:10.37,2013-03-06 04:09:00,
2013-03-05 20:11:00,50.1,44.5,30.04,SW,234,0.0,0.0,81,0.00,CLR,FEW,0.00,0.0,WeatherDisplay:10.37,2013-03-06 04:11:00,
2013-03-05 20:12:00,50.1,44.5,30.04,SW,234,0.0,0.0,81,0.00,CLR,FEW,0.00,0.0,WeatherDisplay:10.37,2013-03-06 04:12:00,
2013-03-05 20:13:00,50.1,44.5,30.04,SW,234,0.0,0.0,81,0.00,CLR,FEW,0.00,0.0,WeatherDisplay:10.37,2013-03-06 04:13:00,
2013-03-05 20:15:00,50.1,44.5,30.04,SW,235,0.0,0.0,81,0.00,CLR,FEW,0.00,0.0,WeatherDisplay:10.37,2013-03-06 04:15:00,
2013-03-05 20:17:00,49.9,44.3,30.04,SW,234,0.0,0.0,81,0.00,CLR,FEW,0.00,0.0,WeatherDisplay:10.37,2013-03-06 04:17:00,
2013-03-05 20:18:00,49.9,44.3,30.04,SW,234,0.0,0.0,81,0.00,CLR,FEW,0.00,0.0,WeatherDisplay:10.37,2013-03-06 04:18:00,
2013-03-05 20:19:00,49.9,44.3,30.04,SW,234,0.0,0.0,81,0.00,CLR,FEW,0.00,0.0,WeatherDisplay:10.37,2013-03-06 04:19:00,
2013-03-05 20:20:00,49.9,44.3,30.04,SW,234,0.0,0.0,81,0.00,CLR,FEW,0.00,0.0,WeatherDisplay:10.37,2013-03-06 04:20:00,
2013-03-05 20:22:00,49.9,44.3,30.04,SW,234,0.0,0.0,81,0.00,CLR,FEW,0.00,0.0,WeatherDisplay:10.37,2013-03-06 04:22:00,
2013-03-05 20:24:00,49.9,44.3,30.04,SW,234,0.0,0.0,81,0.00,CLR,FEW,0.00,0.0,WeatherDisplay:10.37,2013-03-06 04:24:00,
2013-03-05 20:25:00,49.9,44.3,30.04,SW,234,0.0,0.0,81,0.00,CLR,FEW,0.00,0.0,WeatherDisplay:10.37,2013-03-06 04:25:00,
2013-03-05 20:27:00,49.9,44.3,30.04,SW,234,0.0,0.0,81,0.00,CLR,FEW,0.00,0.0,WeatherDisplay:10.37,2013-03-06 04:27:00,
2013-03-05 20:29:00,50.1,44.5,30.04,WSW,242,0.0,0.0,81,0.00,CLR,FEW,0.00,0.0,WeatherDisplay:10.37,2013-03-06 04:29:00,
2013-03-05 20:30:00,49.9,44.3,30.05,SW,235,0.0,0.0,81,0.00,CLR,FEW,0.00,0.0,WeatherDisplay:10.37,2013-03-06 04:30:00,
2013-03-05 20:32:00,49.9,44.3,30.05,SW,231,0.0,0.0,81,0.00,CLR,FEW,0.00,0.0,WeatherDisplay:10.37,2013-03-06 04:32:00,
2013-03-05 20:34:00,49.9,44.3,30.05,SSW,196,0.0,0.0,81,0.00,CLR,FEW,0.00,0.0,WeatherDisplay:10.37,2013-03-06 04:34:00,
2013-03-05 20:35:00,49.9,44.3,30.05,SSW,196,0.0,0.0,81,0.00,CLR,FEW,0.00,0.0,WeatherDisplay:10.37,2013-03-06 04:35:00,
2013-03-05 20:36:00,49.9,44.3,30.05,SSW,196,0.0,0.0,81,0.00,CLR,FEW,0.00,0.0,WeatherDisplay:10.37,2013-03-06 04:36:00,
2013-03-05 20:38:00,49.9,44.3,30.05,SSW,196,0.0,0.0,81,0.00,CLR,FEW,0.00,0.0,WeatherDisplay:10.37,2013-03-06 04:38:00,
2013-03-05 20:39:00,49.9,44.3,30.05,SW,217,0.0,0.0,81,0.00,CLR,FEW,0.00,0.0,WeatherDisplay:10.37,2013-03-06 04:39:00,
2013-03-05 20:41:00,49.9,44.3,30.05,SW,217,0.0,0.0,81,0.00,CLR,FEW,0.00,0.0,WeatherDisplay:10.37,2013-03-06 04:41:00,
2013-03-05 20:42:00,49.9,44.3,30.05,SW,217,0.0,0.0,81,0.00,CLR,FEW,0.00,0.0,WeatherDisplay:10.37,2013-03-06 04:42:00,
2013-03-05 20:44:00,49.9,44.3,30.05,SW,217,0.0,0.0,81,0.00,CLR,FEW,0.00,0.0,WeatherDisplay:10.37,2013-03-06 04:44:00,
2013-03-05 20:45:00,49.9,44.3,30.05,SW,218,0.0,0.0,81,0.00,CLR,FEW,0.00,0.0,WeatherDisplay:10.37,2013-03-06 04:45:00,
2013-03-05 20:46:00,49.9,44.3,30.05,SW,223,0.0,0.0,81,0.00,CLR,FEW,0.00,0.0,WeatherDisplay:10.37,2013-03-06 04:46:00,
2013-03-05 20:48:00,50.1,44.5,30.05,WSW,250,0.0,0.0,81,0.00,CLR,FEW,0.00,0.0,WeatherDisplay:10.37,2013-03-06 04:48:00,
2013-03-05 20:49:00,49.9,44.3,30.05,WSW,249,0.0,0.0,81,0.00,CLR,FEW,0.00,0.0,WeatherDisplay:10.37,2013-03-06 04:49:00,
2013-03-05 20:51:00,49.9,44.3,30.05,WSW,249,0.0,0.0,81,0.00,CLR,FEW,0.00,0.0,WeatherDisplay:10.37,2013-03-06 04:51:00,
2013-03-05 20:52:00,49.9,44.3,30.05,WSW,249,0.0,0.0,81,0.00,CLR,FEW,0.00,0.0,WeatherDisplay:10.37,2013-03-06 04:52:00,
2013-03-05 20:53:00,49.9,44.3,30.05,WSW,249,0.0,0.0,81,0.00,CLR,FEW,0.00,0.0,WeatherDisplay:10.37,2013-03-06 04:53:00,
2013-03-05 20:54:00,49.9,44.3,30.05,WSW,249,0.0,0.0,81,0.00,CLR,FEW,0.00,0.0,WeatherDisplay:10.37,2013-03-06 04:54:00,
2013-03-05 20:56:00,49.9,44.3,30.05,WSW,249,0.0,0.0,81,0.00,CLR,FEW,0.00,0.0,WeatherDisplay:10.37,2013-03-06 04:56:00,
2013-03-05 20:57:00,49.9,44.3,30.05,WSW,249,0.0,0.0,81,0.00,CLR,FEW,0.00,0.0,WeatherDisplay:10.37,2013-03-06 04:57:00,
2013-03-05 20:59:00,49.9,44.6,30.05,WSW,249,0.0,0.0,82,0.00,CLR,FEW,0.00,0.0,WeatherDisplay:10.37,2013-03-06 04:59:00,
2013-03-05 21:00:00,49.9,44.3,30.05,WSW,249,0.0,0.0,81,0.00,CLR,FEW,0.00,0.0,WeatherDisplay:10.37,2013-03-06 05:00:00,
2013-03-05 21:02:00,49.9,44.3,30.06,WSW,249,0.0,0.0,81,0.00,CLR,FEW,0.00,0.0,WeatherDisplay:10.37,2013-03-06 05:02:00,
2013-03-05 21:05:00,49.9,44.3,30.06,WSW,249,0.0,0.0,81,0.00,CLR,FEW,0.00,0.0,WeatherDisplay:10.37,2013-03-06 05:05:00,
2013-03-05 21:08:00,49.8,44.5,30.06,WSW,249,0.0,0.0,82,0.00,CLR,FEW,0.00,0.0,WeatherDisplay:10.37,2013-03-06 05:08:00,
2013-03-05 21:10:00,49.9,44.3,30.06,WSW,250,0.0,0.0,81,0.00,CLR,FEW,0.00,0.0,WeatherDisplay:10.37,2013-03-06 05:10:00,
2013-03-05 21:11:00,49.9,44.3,30.06,WSW,250,0.0,0.0,81,0.00,CLR,FEW,0.00,0.0,WeatherDisplay:10.37,2013-03-06 05:11:00,
2013-03-05 21:13:00,49.9,44.3,30.06,WSW,249,0.0,0.0,81,0.00,CLR,FEW,0.00,0.0,WeatherDisplay:10.37,2013-03-06 05:13:00,
2013-03-05 21:16:00,49.8,44.5,30.06,WSW,249,0.0,0.0,82,0.00,CLR,FEW,0.00,0.0,WeatherDisplay:10.37,2013-03-06 05:16:00,
2013-03-05 21:18:00,49.8,44.5,30.06,WSW,249,0.0,0.0,82,0.00,CLR,FEW,0.00,0.0,WeatherDisplay:10.37,2013-03-06 05:18:00,
2013-03-05 21:21:00,49.8,44.5,30.06,WSW,249,0.0,0.0,82,0.00,CLR,FEW,0.00,0.0,WeatherDisplay:10.37,2013-03-06 05:21:00,
2013-03-05 21:23:00,49.8,44.5,30.06,WSW,249,0.0,0.0,82,0.00,CLR,FEW,0.00,0.0,WeatherDisplay:10.37,2013-03-06 05:23:00,
2013-03-05 21:24:00,49.8,44.5,30.06,WSW,249,0.0,0.0,82,0.00,CLR,FEW,0.00,0.0,WeatherDisplay:10.37,2013-03-06 05:24:00,
2013-03-05 21:26:00,49.9,44.6,30.06,WSW,249,0.0,0.0,82,0.00,CLR,FEW,0.00,0.0,WeatherDisplay:10.37,2013-03-06 05:26:00,
2013-03-05 21:27:00,49.9,44.6,30.06,WSW,249,0.0,0.0,82,0.00,CLR,FEW,0.00,0.0,WeatherDisplay:10.37,2013-03-06 05:27:00,
2013-03-05 21:28:00,49.9,44.6,30.06,WSW,249,0.0,0.0,82,0.00,CLR,FEW,0.00,0.0,WeatherDisplay:10.37,2013-03-06 05:28:00,
2013-03-05 21:30:00,49.9,44.6,30.06,WSW,249,0.0,0.0,82,0.00,CLR,FEW,0.00,0.0,WeatherDisplay:10.37,2013-03-06 05:30:00,
2013-03-05 21:31:00,50.1,44.8,30.06,WSW,249,0.0,0.0,82,0.00,CLR,FEW,0.00,0.0,WeatherDisplay:10.37,2013-03-06 05:31:00,
2013-03-05 21:33:00,50.1,44.8,30.06,WSW,249,0.0,0.0,82,0.00,CLR,FEW,0.00,0.0,WeatherDisplay:10.37,2013-03-06 05:33:00,
2013-03-05 21:35:00,50.1,44.8,30.06,WSW,249,0.0,0.0,82,0.00,CLR,FEW,0.00,0.0,WeatherDisplay:10.37,2013-03-06 05:35:00,
2013-03-05 21:36:00,50.1,44.8,30.06,WSW,249,0.0,0.0,82,0.00,CLR,FEW,0.00,0.0,WeatherDisplay:10.37,2013-03-06 05:36:00,
2013-03-05 21:38:00,49.9,44.6,30.06,WSW,249,0.0,0.0,82,0.00,CLR,FEW,0.00,0.0,WeatherDisplay:10.37,2013-03-06 05:38:00,
2013-03-05 21:40:00,49.9,44.6,30.06,WSW,249,0.0,0.0,82,0.00,CLR,FEW,0.00,0.0,WeatherDisplay:10.37,2013-03-06 05:40:00,
2013-03-05 21:42:00,49.8,44.5,30.06,WSW,248,0.0,0.0,82,0.00,CLR,FEW,0.00,0.0,WeatherDisplay:10.37,2013-03-06 05:42:00,
2013-03-05 21:44:00,49.8,44.5,30.06,WSW,248,0.0,0.0,82,0.00,CLR,FEW,0.00,0.0,WeatherDisplay:10.37,2013-03-06 05:44:00,
2013-03-05 21:45:00,49.8,44.5,30.06,WSW,248,0.0,0.0,82,0.00,CLR,FEW,0.00,0.0,WeatherDisplay:10.37,2013-03-06 05:45:00,
2013-03-05 21:46:00,49.8,44.5,30.06,WSW,238,0.0,0.0,82,0.00,CLR,FEW,0.00,0.0,WeatherDisplay:10.37,2013-03-06 05:46:00,
2013-03-05 21:47:00,49.6,44.3,30.06,SSW,198,0.0,0.0,82,0.00,CLR,FEW,0.00,0.0,WeatherDisplay:10.37,2013-03-06 05:47:00,
2013-03-05 21:49:00,49.4,44.1,30.06,SSW,198,0.0,0.0,82,0.00,CLR,FEW,0.00,0.0,WeatherDisplay:10.37,2013-03-06 05:49:00,
2013-03-05 21:50:00,49.4,44.1,30.06,SSW,198,0.0,0.0,82,0.00,CLR,FEW,0.00,0.0,WeatherDisplay:10.37,2013-03-06 05:50:00,
2013-03-05 21:52:00,49.2,44.3,30.06,SSW,211,0.0,0.0,83,0.00,CLR,FEW,0.00,0.0,WeatherDisplay:10.37,2013-03-06 05:52:00,
2013-03-05 21:55:00,49.2,44.2,30.06,SSW,206,0.0,0.0,83,0.00,CLR,FEW,0.00,0.0,WeatherDisplay:10.37,2013-03-06 05:55:00,
2013-03-05 21:57:00,49.1,44.2,30.06,SW,221,0.0,0.0,83,0.00,CLR,FEW,0.00,0.0,WeatherDisplay:10.37,2013-03-06 05:57:00,
2013-03-05 22:00:00,49.1,44.5,30.07,SW,221,0.0,0.0,84,0.00,CLR,FEW,0.00,0.0,WeatherDisplay:10.37,2013-03-06 06:00:00,
2013-03-05 22:02:00,48.9,44.3,30.07,SW,221,0.0,0.0,84,0.00,CLR,FEW,0.00,0.0,WeatherDisplay:10.37,2013-03-06 06:02:00,
2013-03-05 22:04:00,48.8,44.2,30.07,SW,221,0.0,0.0,84,0.00,CLR,FEW,0.00,0.0,WeatherDisplay:10.37,2013-03-06 06:04:00,
2013-03-05 22:05:00,48.8,44.5,30.07,SW,221,0.0,0.0,85,0.00,CLR,FEW,0.00,0.0,WeatherDisplay:10.37,2013-03-06 06:05:00,
2013-03-05 22:06:00,48.8,44.5,30.07,SW,221,0.0,0.0,85,0.00,CLR,FEW,0.00,0.0,WeatherDisplay:10.37,2013-03-06 06:06:00,
2013-03-05 22:07:00,48.8,44.5,30.07,SW,221,0.0,0.0,85,0.00,CLR,FEW,0.00,0.0,WeatherDisplay:10.37,2013-03-06 06:07:00,
2013-03-05 22:09:00,48.9,44.6,30.07,SW,221,0.0,0.0,85,0.00,CLR,FEW,0.00,0.0,WeatherDisplay:10.37,2013-03-06 06:09:00,
2013-03-05 22:10:00,48.9,44.6,30.07,SW,221,0.0,0.0,85,0.00,CLR,FEW,0.00,0.0,WeatherDisplay:10.37,2013-03-06 06:10:00,
2013-03-05 22:11:00,48.9,44.6,30.07,SW,221,0.0,0.0,85,0.00,CLR,FEW,0.00,0.0,WeatherDisplay:10.37,2013-03-06 06:11:00,
2013-03-05 22:13:00,48.9,44.6,30.07,SW,221,0.0,0.0,85,0.00,CLR,FEW,0.00,0.0,WeatherDisplay:10.37,2013-03-06 06:13:00,
2013-03-05 22:15:00,48.8,44.5,30.07,SW,221,0.0,0.0,85,0.00,CLR,FEW,0.00,0.0,WeatherDisplay:10.37,2013-03-06 06:15:00,
2013-03-05 22:16:00,48.8,44.5,30.07,SW,221,0.0,0.0,85,0.00,CLR,FEW,0.00,0.0,WeatherDisplay:10.37,2013-03-06 06:16:00,
2013-03-05 22:19:00,48.8,44.5,30.07,SW,221,0.0,0.0,85,0.00,CLR,FEW,0.00,0.0,WeatherDisplay:10.37,2013-03-06 06:19:00,
2013-03-05 22:20:00,48.8,44.5,30.07,SW,221,0.0,0.0,85,0.00,CLR,FEW,0.00,0.0,WeatherDisplay:10.37,2013-03-06 06:20:00,
2013-03-05 22:21:00,48.8,44.5,30.07,SW,221,0.0,0.0,85,0.00,CLR,FEW,0.00,0.0,WeatherDisplay:10.37,2013-03-06 06:21:00,
2013-03-05 22:23:00,48.6,44.3,30.07,SW,221,0.0,0.0,85,0.00,CLR,FEW,0.00,0.0,WeatherDisplay:10.37,2013-03-06 06:23:00,
2013-03-05 22:24:00,48.5,44.2,30.07,SW,221,0.0,0.0,85,0.00,CLR,FEW,0.00,0.0,WeatherDisplay:10.37,2013-03-06 06:24:00,
2013-03-05 22:26:00,48.3,44.0,30.07,SW,221,0.0,0.0,85,0.00,CLR,FEW,0.00,0.0,WeatherDisplay:10.37,2013-03-06 06:26:00,
2013-03-05 22:27:00,48.3,44.0,30.07,SW,221,0.0,0.0,85,0.00,CLR,FEW,0.00,0.0,WeatherDisplay:10.37,2013-03-06 06:27:00,
2013-03-05 22:29:00,48.3,44.0,30.07,SW,221,0.0,0.0,85,0.00,CLR,FEW,0.00,0.0,WeatherDisplay:10.37,2013-03-06 06:29:00,
2013-03-05 22:32:00,48.2,43.9,30.07,SW,221,0.0,0.0,85,0.00,CLR,FEW,0.00,0.0,WeatherDisplay:10.37,2013-03-06 06:32:00,
2013-03-05 22:33:00,48.2,44.2,30.07,SW,221,0.0,0.0,86,0.00,CLR,FEW,0.00,0.0,WeatherDisplay:10.37,2013-03-06 06:33:00,
2013-03-05 22:34:00,48.0,44.0,30.07,SW,221,0.0,0.0,86,0.00,CLR,FEW,0.00,0.0,WeatherDisplay:10.37,2013-03-06 06:34:00,
2013-03-05 22:35:00,48.0,44.0,30.07,SW,221,0.0,0.0,86,0.00,CLR,FEW,0.00,0.0,WeatherDisplay:10.37,2013-03-06 06:35:00,
2013-03-05 22:38:00,48.0,44.0,30.07,SW,221,0.0,0.0,86,0.00,CLR,FEW,0.00,0.0,WeatherDisplay:10.37,2013-03-06 06:38:00,
2013-03-05 22:39:00,48.0,44.0,30.07,SW,221,0.0,0.0,86,0.00,CLR,FEW,0.00,0.0,WeatherDisplay:10.37,2013-03-06 06:39:00,
2013-03-05 22:41:00,48.2,44.2,30.07,SW,221,0.0,0.0,86,0.00,CLR,FEW,0.00,0.0,WeatherDisplay:10.37,2013-03-06 06:41:00,
2013-03-05 22:42:00,48.2,44.2,30.07,SW,221,0.0,0.0,86,0.00,CLR,FEW,0.00,0.0,WeatherDisplay:10.37,2013-03-06 06:42:00,
2013-03-05 22:43:00,48.2,44.2,30.07,SW,221,0.0,0.0,86,0.00,CLR,FEW,0.00,0.0,WeatherDisplay:10.37,2013-03-06 06:43:00,
2013-03-05 22:45:00,48.2,44.2,30.07,SW,221,0.0,0.0,86,0.00,CLR,FEW,0.00,0.0,WeatherDisplay:10.37,2013-03-06 06:45:00,
2013-03-05 22:47:00,48.2,44.2,30.07,SW,221,0.0,0.0,86,0.00,CLR,FEW,0.00,0.0,WeatherDisplay:10.37,2013-03-06 06:47:00,
2013-03-05 22:48:00,48.2,44.2,30.07,SW,221,0.0,0.0,86,0.00,CLR,FEW,0.00,0.0,WeatherDisplay:10.37,2013-03-06 06:48:00,
2013-03-05 22:49:00,48.2,44.2,30.07,SW,221,0.0,0.0,86,0.00,CLR,FEW,0.00,0.0,WeatherDisplay:10.37,2013-03-06 06:49:00,
2013-03-05 22:51:00,48.0,44.0,30.07,SW,221,0.0,0.0,86,0.00,CLR,FEW,0.00,0.0,WeatherDisplay:10.37,2013-03-06 06:51:00,
2013-03-05 22:52:00,48.0,44.0,30.07,SW,221,0.0,0.0,86,0.00,CLR,FEW,0.00,0.0,WeatherDisplay:10.37,2013-03-06 06:52:00,
2013-03-05 22:53:00,48.0,44.0,30.07,SW,221,0.0,0.0,86,0.00,CLR,FEW,0.00,0.0,WeatherDisplay:10.37,2013-03-06 06:53:00,
2013-03-05 22:54:00,48.0,44.0,30.07,SW,221,0.0,0.0,86,0.00,CLR,FEW,0.00,0.0,WeatherDisplay:10.37,2013-03-06 06:54:00,
2013-03-05 22:57:00,47.9,43.9,30.07,SW,221,0.0,0.0,86,0.00,CLR,FEW,0.00,0.0,WeatherDisplay:10.37,2013-03-06 06:57:00,
2013-03-05 22:58:00,47.9,43.9,30.07,SW,221,0.0,0.0,86,0.00,CLR,FEW,0.00,0.0,WeatherDisplay:10.37,2013-03-06 06:58:00,
2013-03-05 22:59:00,47.9,43.9,30.07,SW,221,0.0,0.0,86,0.00,CLR,FEW,0.00,0.0,WeatherDisplay:10.37,2013-03-06 06:59:00,
2013-03-05 23:02:00,47.9,43.9,30.07,SW,221,0.0,0.0,86,0.00,CLR,FEW,0.00,0.0,WeatherDisplay:10.37,2013-03-06 07:02:00,
2013-03-05 23:03:00,47.9,43.9,30.07,SW,221,0.0,0.0,86,0.00,CLR,FEW,0.00,0.0,WeatherDisplay:10.37,2013-03-06 07:03:00,
2013-03-05 23:05:00,47.9,43.9,30.07,SW,221,0.0,0.0,86,0.00,CLR,FEW,0.00,0.0,WeatherDisplay:10.37,2013-03-06 07:05:00,
2013-03-05 23:08:00,47.9,44.2,30.07,SW,221,0.0,0.0,87,0.00,CLR,FEW,0.00,0.0,WeatherDisplay:10.37,2013-03-06 07:08:00,
2013-03-05 23:09:00,47.9,44.2,30.07,SW,221,0.0,0.0,87,0.00,CLR,FEW,0.00,0.0,WeatherDisplay:10.37,2013-03-06 07:09:00,
2013-03-05 23:13:00,47.9,44.2,30.07,SW,221,0.0,0.0,87,0.00,CLR,FEW,0.00,0.0,WeatherDisplay:10.37,2013-03-06 07:13:00,
2013-03-05 23:14:00,47.9,44.2,30.07,SW,221,0.0,0.0,87,0.00,CLR,FEW,0.00,0.0,WeatherDisplay:10.37,2013-03-06 07:14:00,
2013-03-05 23:15:00,47.7,44.0,30.06,SW,221,0.0,0.0,87,0.00,CLR,FEW,0.00,0.0,WeatherDisplay:10.37,2013-03-06 07:15:00,
2013-03-05 23:18:00,47.7,44.0,30.06,SW,221,0.0,0.0,87,0.00,CLR,FEW,0.00,0.0,WeatherDisplay:10.37,2013-03-06 07:18:00,
2013-03-05 23:19:00,47.7,44.0,30.06,SW,221,0.0,0.0,87,0.00,CLR,FEW,0.00,0.0,WeatherDisplay:10.37,2013-03-06 07:19:00,
2013-03-05 23:20:00,47.9,44.2,30.06,SW,221,0.0,0.0,87,0.00,CLR,FEW,0.00,0.0,WeatherDisplay:10.37,2013-03-06 07:20:00,
2013-03-05 23:23:00,47.9,44.2,30.06,SW,221,0.0,0.0,87,0.00,CLR,FEW,0.00,0.0,WeatherDisplay:10.37,2013-03-06 07:23:00,
2013-03-05 23:25:00,47.9,44.2,30.06,SW,221,0.0,0.0,87,0.00,CLR,FEW,0.00,0.0,WeatherDisplay:10.37,2013-03-06 07:25:00,
2013-03-05 23:28:00,47.9,44.2,30.06,SW,221,0.0,0.0,87,0.00,CLR,FEW,0.00,0.0,WeatherDisplay:10.37,2013-03-06 07:28:00,
2013-03-05 23:29:00,47.9,44.2,30.06,SW,221,0.0,0.0,87,0.00,CLR,FEW,0.00,0.0,WeatherDisplay:10.37,2013-03-06 07:29:00,
2013-03-05 23:30:00,47.9,44.2,30.07,SW,221,0.0,0.0,87,0.00,CLR,FEW,0.00,0.0,WeatherDisplay:10.37,2013-03-06 07:30:00,
2013-03-05 23:32:00,47.9,44.2,30.07,SW,221,0.0,0.0,87,0.00,CLR,FEW,0.00,0.0,WeatherDisplay:10.37,2013-03-06 07:32:00,
2013-03-05 23:34:00,47.9,44.2,30.07,SW,221,0.0,0.0,87,0.00,CLR,FEW,0.00,0.0,WeatherDisplay:10.37,2013-03-06 07:34:00,
2013-03-05 23:36:00,47.7,44.0,30.07,SW,221,0.0,0.0,87,0.00,CLR,FEW,0.00,0.0,WeatherDisplay:10.37,2013-03-06 07:36:00,
2013-03-05 23:37:00,47.7,44.0,30.07,SW,221,0.0,0.0,87,0.00,CLR,FEW,0.00,0.0,WeatherDisplay:10.37,2013-03-06 07:37:00,
2013-03-05 23:38:00,47.7,44.0,30.07,SW,221,0.0,0.0,87,0.00,CLR,FEW,0.00,0.0,WeatherDisplay:10.37,2013-03-06 07:38:00,
2013-03-05 23:39:00,47.7,44.0,30.07,SW,221,0.0,0.0,87,0.00,CLR,FEW,0.00,0.0,WeatherDisplay:10.37,2013-03-06 07:39:00,
2013-03-05 23:42:00,47.9,44.2,30.07,SW,221,0.0,0.0,87,0.00,CLR,FEW,0.00,0.0,WeatherDisplay:10.37,2013-03-06 07:42:00,
2013-03-05 23:44:00,47.7,44.0,30.07,SW,221,0.0,0.0,87,0.00,CLR,FEW,0.00,0.0,WeatherDisplay:10.37,2013-03-06 07:44:00,
2013-03-05 23:45:00,47.7,44.0,30.07,SW,221,0.0,0.0,87,0.00,CLR,FEW,0.00,0.0,WeatherDisplay:10.37,2013-03-06 07:45:00,
2013-03-05 23:48:00,47.7,44.0,30.07,SW,221,0.0,0.0,87,0.00,CLR,FEW,0.00,0.0,WeatherDisplay:10.37,2013-03-06 07:48:00,
2013-03-05 23:49:00,47.7,44.0,30.07,SW,221,0.0,0.0,87,0.00,CLR,FEW,0.00,0.0,WeatherDisplay:10.37,2013-03-06 07:49:00,
2013-03-05 23:51:00,47.7,44.0,30.07,SW,221,0.0,0.0,87,0.00,CLR,FEW,0.00,0.0,WeatherDisplay:10.37,2013-03-06 07:51:00,
2013-03-05 23:53:00,47.7,44.0,30.07,SW,221,0.0,0.0,87,0.00,CLR,FEW,0.00,0.0,WeatherDisplay:10.37,2013-03-06 07:53:00,
2013-03-05 23:54:00,47.6,43.9,30.07,SW,221,0.0,0.0,87,0.01,RA,FEW,0.01,0.0,WeatherDisplay:10.37,2013-03-06 07:54:00,
2013-03-05 23:55:00,47.4,43.7,30.07,SW,221,0.0,0.0,87,0.01,RA,FEW,0.01,0.0,WeatherDisplay:10.37,2013-03-06 07:55:00,
2013-03-05 23:57:00,47.4,43.7,30.07,SW,221,0.0,0.0,87,0.01,RA,FEW,0.01,0.0,WeatherDisplay:10.37,2013-03-06 07:57:00,
2013-03-05 23:58:00,47.3,43.6,30.07,SW,221,0.0,0.0,87,0.01,RA,FEW,0.01,0.0,WeatherDisplay:10.37,2013-03-06 07:58:00,